<?xml version="1.0" encoding="UTF-8" standalone="no" ?>
<gpx xmlns="http://www.topografix.com/GPX/1/1" xmlns:xsi="http://www.w3.org/2001/XMLSchema-instance" xsi:schemaLocation="http://www.topografix.com/GPX/1/1 http://www.topografix.com/GPX/1/1/gpx.xsd" version="1.1" creator="VisuGPX - https://www.visugpx.com">
  <metadata>
    <name>La Faucille G2</name>
  </metadata>
  <trk>
    <name><![CDATA[G2-Faucille-CODAP-15967711]]></name>
    <extensions>
      <line xmlns="http://www.topografix.com/GPX/gpx_style/0/2">
        <color>0000FF</color>
        <width>4</width>
      </line>
    </extensions>
    <trkseg>
      <trkpt lat="46.3672" lon="6.01698">
        <ele>1327</ele>
        <time>2023-01-05T10:11:52Z</time>
      </trkpt>
      <trkpt lat="46.36722" lon="6.01684">
        <ele>1327</ele>
        <time>2023-01-05T10:12:00Z</time>
      </trkpt>
      <trkpt lat="46.36722" lon="6.01665">
        <ele>1326</ele>
        <time>2023-01-05T10:12:10Z</time>
      </trkpt>
      <trkpt lat="46.36724" lon="6.0165">
        <ele>1325</ele>
        <time>2023-01-05T10:12:19Z</time>
      </trkpt>
      <trkpt lat="46.36733" lon="6.01619">
        <ele>1322</ele>
        <time>2023-01-05T10:12:37Z</time>
      </trkpt>
      <trkpt lat="46.36744" lon="6.01586">
        <ele>1319</ele>
        <time>2023-01-05T10:12:58Z</time>
      </trkpt>
      <trkpt lat="46.36757" lon="6.0155">
        <ele>1316</ele>
        <time>2023-01-05T10:13:20Z</time>
      </trkpt>
      <trkpt lat="46.36749" lon="6.01538">
        <ele>1317</ele>
        <time>2023-01-05T10:13:29Z</time>
      </trkpt>
      <trkpt lat="46.3674" lon="6.01515">
        <ele>1317</ele>
        <time>2023-01-05T10:13:44Z</time>
      </trkpt>
      <trkpt lat="46.36733" lon="6.01498">
        <ele>1317</ele>
        <time>2023-01-05T10:13:55Z</time>
      </trkpt>
      <trkpt lat="46.36724" lon="6.01479">
        <ele>1318</ele>
        <time>2023-01-05T10:14:08Z</time>
      </trkpt>
      <trkpt lat="46.36715" lon="6.0146">
        <ele>1319</ele>
        <time>2023-01-05T10:14:20Z</time>
      </trkpt>
      <trkpt lat="46.36708" lon="6.01437">
        <ele>1321</ele>
        <time>2023-01-05T10:14:34Z</time>
      </trkpt>
      <trkpt lat="46.36697" lon="6.01445">
        <ele>1323</ele>
        <time>2023-01-05T10:14:44Z</time>
      </trkpt>
      <trkpt lat="46.36668" lon="6.01455">
        <ele>1326</ele>
        <time>2023-01-05T10:15:08Z</time>
      </trkpt>
      <trkpt lat="46.36644" lon="6.0146">
        <ele>1329</ele>
        <time>2023-01-05T10:15:27Z</time>
      </trkpt>
      <trkpt lat="46.36633" lon="6.01463">
        <ele>1331</ele>
        <time>2023-01-05T10:15:36Z</time>
      </trkpt>
      <trkpt lat="46.36606" lon="6.01464">
        <ele>1335</ele>
        <time>2023-01-05T10:15:58Z</time>
      </trkpt>
      <trkpt lat="46.36597" lon="6.01457">
        <ele>1337</ele>
        <time>2023-01-05T10:16:06Z</time>
      </trkpt>
      <trkpt lat="46.36581" lon="6.01437">
        <ele>1340</ele>
        <time>2023-01-05T10:16:23Z</time>
      </trkpt>
      <trkpt lat="46.36575" lon="6.01431">
        <ele>1341</ele>
        <time>2023-01-05T10:16:29Z</time>
      </trkpt>
      <trkpt lat="46.3656" lon="6.0143">
        <ele>1343</ele>
        <time>2023-01-05T10:16:41Z</time>
      </trkpt>
      <trkpt lat="46.36549" lon="6.01435">
        <ele>1344</ele>
        <time>2023-01-05T10:16:50Z</time>
      </trkpt>
      <trkpt lat="46.36537" lon="6.01427">
        <ele>1346</ele>
        <time>2023-01-05T10:17:01Z</time>
      </trkpt>
      <trkpt lat="46.36531" lon="6.01425">
        <ele>1347</ele>
        <time>2023-01-05T10:17:06Z</time>
      </trkpt>
      <trkpt lat="46.36518" lon="6.01419">
        <ele>1349</ele>
        <time>2023-01-05T10:17:17Z</time>
      </trkpt>
      <trkpt lat="46.36504" lon="6.01411">
        <ele>1351</ele>
        <time>2023-01-05T10:17:29Z</time>
      </trkpt>
      <trkpt lat="46.36486" lon="6.01403">
        <ele>1355</ele>
        <time>2023-01-05T10:17:44Z</time>
      </trkpt>
      <trkpt lat="46.36469" lon="6.01397">
        <ele>1360</ele>
        <time>2023-01-05T10:17:58Z</time>
      </trkpt>
      <trkpt lat="46.36451" lon="6.01387">
        <ele>1364</ele>
        <time>2023-01-05T10:18:13Z</time>
      </trkpt>
      <trkpt lat="46.36423" lon="6.01373">
        <ele>1370</ele>
        <time>2023-01-05T10:18:37Z</time>
      </trkpt>
      <trkpt lat="46.36412" lon="6.01364">
        <ele>1372</ele>
        <time>2023-01-05T10:18:47Z</time>
      </trkpt>
      <trkpt lat="46.36407" lon="6.01349">
        <ele>1372</ele>
        <time>2023-01-05T10:18:56Z</time>
      </trkpt>
      <trkpt lat="46.36396" lon="6.01342">
        <ele>1375</ele>
        <time>2023-01-05T10:19:06Z</time>
      </trkpt>
      <trkpt lat="46.36378" lon="6.01346">
        <ele>1382</ele>
        <time>2023-01-05T10:19:20Z</time>
      </trkpt>
      <trkpt lat="46.36364" lon="6.01349">
        <ele>1387</ele>
        <time>2023-01-05T10:19:32Z</time>
      </trkpt>
      <trkpt lat="46.36345" lon="6.01353">
        <ele>1394</ele>
        <time>2023-01-05T10:19:47Z</time>
      </trkpt>
      <trkpt lat="46.36345" lon="6.01364">
        <ele>1395</ele>
        <time>2023-01-05T10:19:53Z</time>
      </trkpt>
      <trkpt lat="46.36333" lon="6.01389">
        <ele>1402</ele>
        <time>2023-01-05T10:20:10Z</time>
      </trkpt>
      <trkpt lat="46.36323" lon="6.01408">
        <ele>1407</ele>
        <time>2023-01-05T10:20:23Z</time>
      </trkpt>
      <trkpt lat="46.36311" lon="6.01425">
        <ele>1411</ele>
        <time>2023-01-05T10:20:37Z</time>
      </trkpt>
      <trkpt lat="46.36304" lon="6.01446">
        <ele>1414</ele>
        <time>2023-01-05T10:20:50Z</time>
      </trkpt>
      <trkpt lat="46.36304" lon="6.01469">
        <ele>1415</ele>
        <time>2023-01-05T10:21:02Z</time>
      </trkpt>
      <trkpt lat="46.36308" lon="6.01494">
        <ele>1415</ele>
        <time>2023-01-05T10:21:16Z</time>
      </trkpt>
      <trkpt lat="46.36309" lon="6.01513">
        <ele>1415</ele>
        <time>2023-01-05T10:21:27Z</time>
      </trkpt>
      <trkpt lat="46.36305" lon="6.0154">
        <ele>1417</ele>
        <time>2023-01-05T10:21:42Z</time>
      </trkpt>
      <trkpt lat="46.36301" lon="6.01558">
        <ele>1418</ele>
        <time>2023-01-05T10:21:53Z</time>
      </trkpt>
      <trkpt lat="46.36297" lon="6.01571">
        <ele>1419</ele>
        <time>2023-01-05T10:22:01Z</time>
      </trkpt>
      <trkpt lat="46.36288" lon="6.01589">
        <ele>1422</ele>
        <time>2023-01-05T10:22:13Z</time>
      </trkpt>
      <trkpt lat="46.3628" lon="6.01605">
        <ele>1424</ele>
        <time>2023-01-05T10:22:24Z</time>
      </trkpt>
      <trkpt lat="46.36276" lon="6.01618">
        <ele>1425</ele>
        <time>2023-01-05T10:22:32Z</time>
      </trkpt>
      <trkpt lat="46.36272" lon="6.01628">
        <ele>1427</ele>
        <time>2023-01-05T10:22:38Z</time>
      </trkpt>
      <trkpt lat="46.3626" lon="6.01624">
        <ele>1429</ele>
        <time>2023-01-05T10:22:48Z</time>
      </trkpt>
      <trkpt lat="46.36252" lon="6.01621">
        <ele>1430</ele>
        <time>2023-01-05T10:22:54Z</time>
      </trkpt>
      <trkpt lat="46.36249" lon="6.01612">
        <ele>1431</ele>
        <time>2023-01-05T10:23:00Z</time>
      </trkpt>
      <trkpt lat="46.36247" lon="6.01598">
        <ele>1431</ele>
        <time>2023-01-05T10:23:08Z</time>
      </trkpt>
      <trkpt lat="46.3624" lon="6.01592">
        <ele>1433</ele>
        <time>2023-01-05T10:23:14Z</time>
      </trkpt>
      <trkpt lat="46.3623" lon="6.01593">
        <ele>1437</ele>
        <time>2023-01-05T10:23:22Z</time>
      </trkpt>
      <trkpt lat="46.36221" lon="6.01602">
        <ele>1440</ele>
        <time>2023-01-05T10:23:31Z</time>
      </trkpt>
      <trkpt lat="46.3621" lon="6.016">
        <ele>1443</ele>
        <time>2023-01-05T10:23:40Z</time>
      </trkpt>
      <trkpt lat="46.36198" lon="6.01598">
        <ele>1447</ele>
        <time>2023-01-05T10:23:50Z</time>
      </trkpt>
      <trkpt lat="46.36189" lon="6.01597">
        <ele>1450</ele>
        <time>2023-01-05T10:23:57Z</time>
      </trkpt>
      <trkpt lat="46.3618" lon="6.01607">
        <ele>1453</ele>
        <time>2023-01-05T10:24:06Z</time>
      </trkpt>
      <trkpt lat="46.36173" lon="6.01614">
        <ele>1455</ele>
        <time>2023-01-05T10:24:13Z</time>
      </trkpt>
      <trkpt lat="46.36167" lon="6.01611">
        <ele>1457</ele>
        <time>2023-01-05T10:24:18Z</time>
      </trkpt>
      <trkpt lat="46.36157" lon="6.01603">
        <ele>1460</ele>
        <time>2023-01-05T10:24:27Z</time>
      </trkpt>
      <trkpt lat="46.36147" lon="6.01594">
        <ele>1463</ele>
        <time>2023-01-05T10:24:36Z</time>
      </trkpt>
      <trkpt lat="46.36137" lon="6.01587">
        <ele>1466</ele>
        <time>2023-01-05T10:24:45Z</time>
      </trkpt>
      <trkpt lat="46.36121" lon="6.01583">
        <ele>1470</ele>
        <time>2023-01-05T10:24:58Z</time>
      </trkpt>
      <trkpt lat="46.36104" lon="6.01588">
        <ele>1474</ele>
        <time>2023-01-05T10:25:12Z</time>
      </trkpt>
      <trkpt lat="46.36087" lon="6.01594">
        <ele>1479</ele>
        <time>2023-01-05T10:25:26Z</time>
      </trkpt>
      <trkpt lat="46.3607" lon="6.01596">
        <ele>1483</ele>
        <time>2023-01-05T10:25:40Z</time>
      </trkpt>
      <trkpt lat="46.36046" lon="6.01602">
        <ele>1488</ele>
        <time>2023-01-05T10:25:59Z</time>
      </trkpt>
      <trkpt lat="46.36034" lon="6.01601">
        <ele>1491</ele>
        <time>2023-01-05T10:26:09Z</time>
      </trkpt>
      <trkpt lat="46.3602" lon="6.01604">
        <ele>1495</ele>
        <time>2023-01-05T10:26:20Z</time>
      </trkpt>
      <trkpt lat="46.36004" lon="6.01602">
        <ele>1498</ele>
        <time>2023-01-05T10:26:33Z</time>
      </trkpt>
      <trkpt lat="46.35985" lon="6.01605">
        <ele>1501</ele>
        <time>2023-01-05T10:26:49Z</time>
      </trkpt>
      <trkpt lat="46.35966" lon="6.01612">
        <ele>1504</ele>
        <time>2023-01-05T10:27:04Z</time>
      </trkpt>
      <trkpt lat="46.35954" lon="6.01614">
        <ele>1506</ele>
        <time>2023-01-05T10:27:14Z</time>
      </trkpt>
      <trkpt lat="46.35943" lon="6.016">
        <ele>1508</ele>
        <time>2023-01-05T10:27:26Z</time>
      </trkpt>
      <trkpt lat="46.35929" lon="6.01594">
        <ele>1510</ele>
        <time>2023-01-05T10:27:37Z</time>
      </trkpt>
      <trkpt lat="46.35909" lon="6.01598">
        <ele>1512</ele>
        <time>2023-01-05T10:27:53Z</time>
      </trkpt>
      <trkpt lat="46.3589" lon="6.01621">
        <ele>1514</ele>
        <time>2023-01-05T10:28:13Z</time>
      </trkpt>
      <trkpt lat="46.35879" lon="6.01654">
        <ele>1518</ele>
        <time>2023-01-05T10:28:34Z</time>
      </trkpt>
      <trkpt lat="46.35869" lon="6.01659">
        <ele>1520</ele>
        <time>2023-01-05T10:28:42Z</time>
      </trkpt>
      <trkpt lat="46.35848" lon="6.01662">
        <ele>1522</ele>
        <time>2023-01-05T10:28:59Z</time>
      </trkpt>
      <trkpt lat="46.35837" lon="6.01662">
        <ele>1524</ele>
        <time>2023-01-05T10:29:08Z</time>
      </trkpt>
      <trkpt lat="46.35819" lon="6.01654">
        <ele>1525</ele>
        <time>2023-01-05T10:29:23Z</time>
      </trkpt>
      <trkpt lat="46.35807" lon="6.01656">
        <ele>1527</ele>
        <time>2023-01-05T10:29:32Z</time>
      </trkpt>
      <trkpt lat="46.35794" lon="6.01669">
        <ele>1530</ele>
        <time>2023-01-05T10:29:45Z</time>
      </trkpt>
      <trkpt lat="46.35776" lon="6.01652">
        <ele>1530</ele>
        <time>2023-01-05T10:30:02Z</time>
      </trkpt>
      <trkpt lat="46.35762" lon="6.0165">
        <ele>1532</ele>
        <time>2023-01-05T10:30:14Z</time>
      </trkpt>
      <trkpt lat="46.3575" lon="6.01655">
        <ele>1534</ele>
        <time>2023-01-05T10:30:24Z</time>
      </trkpt>
      <trkpt lat="46.35742" lon="6.01636">
        <ele>1530</ele>
        <time>2023-01-05T10:30:36Z</time>
      </trkpt>
      <trkpt lat="46.35736" lon="6.01624">
        <ele>1528</ele>
        <time>2023-01-05T10:30:44Z</time>
      </trkpt>
      <trkpt lat="46.35728" lon="6.01619">
        <ele>1527</ele>
        <time>2023-01-05T10:30:51Z</time>
      </trkpt>
      <trkpt lat="46.35717" lon="6.01623">
        <ele>1526</ele>
        <time>2023-01-05T10:31:00Z</time>
      </trkpt>
      <trkpt lat="46.35704" lon="6.01627">
        <ele>1525</ele>
        <time>2023-01-05T10:31:11Z</time>
      </trkpt>
      <trkpt lat="46.35692" lon="6.01638">
        <ele>1524</ele>
        <time>2023-01-05T10:31:22Z</time>
      </trkpt>
      <trkpt lat="46.35678" lon="6.01648">
        <ele>1523</ele>
        <time>2023-01-05T10:31:35Z</time>
      </trkpt>
      <trkpt lat="46.35659" lon="6.01652">
        <ele>1518</ele>
        <time>2023-01-05T10:31:50Z</time>
      </trkpt>
      <trkpt lat="46.35643" lon="6.01653">
        <ele>1512</ele>
        <time>2023-01-05T10:32:03Z</time>
      </trkpt>
      <trkpt lat="46.35633" lon="6.01647">
        <ele>1508</ele>
        <time>2023-01-05T10:32:11Z</time>
      </trkpt>
      <trkpt lat="46.3562" lon="6.01637">
        <ele>1505</ele>
        <time>2023-01-05T10:32:23Z</time>
      </trkpt>
      <trkpt lat="46.35612" lon="6.01627">
        <ele>1504</ele>
        <time>2023-01-05T10:32:32Z</time>
      </trkpt>
      <trkpt lat="46.35607" lon="6.01606">
        <ele>1506</ele>
        <time>2023-01-05T10:32:44Z</time>
      </trkpt>
      <trkpt lat="46.35601" lon="6.01583">
        <ele>1510</ele>
        <time>2023-01-05T10:32:58Z</time>
      </trkpt>
      <trkpt lat="46.35596" lon="6.01561">
        <ele>1513</ele>
        <time>2023-01-05T10:33:10Z</time>
      </trkpt>
      <trkpt lat="46.35588" lon="6.01556">
        <ele>1513</ele>
        <time>2023-01-05T10:33:17Z</time>
      </trkpt>
      <trkpt lat="46.35578" lon="6.01548">
        <ele>1513</ele>
        <time>2023-01-05T10:33:27Z</time>
      </trkpt>
      <trkpt lat="46.35569" lon="6.01541">
        <ele>1512</ele>
        <time>2023-01-05T10:33:35Z</time>
      </trkpt>
      <trkpt lat="46.35561" lon="6.01525">
        <ele>1514</ele>
        <time>2023-01-05T10:33:46Z</time>
      </trkpt>
      <trkpt lat="46.35555" lon="6.01506">
        <ele>1518</ele>
        <time>2023-01-05T10:33:57Z</time>
      </trkpt>
      <trkpt lat="46.35544" lon="6.01492">
        <ele>1519</ele>
        <time>2023-01-05T10:34:09Z</time>
      </trkpt>
      <trkpt lat="46.35531" lon="6.01477">
        <ele>1518</ele>
        <time>2023-01-05T10:34:22Z</time>
      </trkpt>
      <trkpt lat="46.35524" lon="6.01457">
        <ele>1519</ele>
        <time>2023-01-05T10:34:35Z</time>
      </trkpt>
      <trkpt lat="46.35517" lon="6.01433">
        <ele>1520</ele>
        <time>2023-01-05T10:34:49Z</time>
      </trkpt>
      <trkpt lat="46.35512" lon="6.01408">
        <ele>1521</ele>
        <time>2023-01-05T10:35:03Z</time>
      </trkpt>
      <trkpt lat="46.35511" lon="6.01381">
        <ele>1521</ele>
        <time>2023-01-05T10:35:18Z</time>
      </trkpt>
      <trkpt lat="46.3551" lon="6.01353">
        <ele>1520</ele>
        <time>2023-01-05T10:35:34Z</time>
      </trkpt>
      <trkpt lat="46.35505" lon="6.01331">
        <ele>1518</ele>
        <time>2023-01-05T10:35:47Z</time>
      </trkpt>
      <trkpt lat="46.35496" lon="6.01324">
        <ele>1516</ele>
        <time>2023-01-05T10:35:55Z</time>
      </trkpt>
      <trkpt lat="46.35489" lon="6.0132">
        <ele>1514</ele>
        <time>2023-01-05T10:36:01Z</time>
      </trkpt>
      <trkpt lat="46.35491" lon="6.01301">
        <ele>1512</ele>
        <time>2023-01-05T10:36:11Z</time>
      </trkpt>
      <trkpt lat="46.35496" lon="6.01279">
        <ele>1511</ele>
        <time>2023-01-05T10:36:24Z</time>
      </trkpt>
      <trkpt lat="46.35503" lon="6.01256">
        <ele>1509</ele>
        <time>2023-01-05T10:36:38Z</time>
      </trkpt>
      <trkpt lat="46.35502" lon="6.01243">
        <ele>1508</ele>
        <time>2023-01-05T10:36:45Z</time>
      </trkpt>
      <trkpt lat="46.35509" lon="6.01228">
        <ele>1509</ele>
        <time>2023-01-05T10:36:55Z</time>
      </trkpt>
      <trkpt lat="46.35511" lon="6.01214">
        <ele>1509</ele>
        <time>2023-01-05T10:37:03Z</time>
      </trkpt>
      <trkpt lat="46.35514" lon="6.01204">
        <ele>1509</ele>
        <time>2023-01-05T10:37:09Z</time>
      </trkpt>
      <trkpt lat="46.35512" lon="6.01192">
        <ele>1508</ele>
        <time>2023-01-05T10:37:16Z</time>
      </trkpt>
      <trkpt lat="46.35515" lon="6.0118">
        <ele>1508</ele>
        <time>2023-01-05T10:37:23Z</time>
      </trkpt>
      <trkpt lat="46.35511" lon="6.01171">
        <ele>1508</ele>
        <time>2023-01-05T10:37:29Z</time>
      </trkpt>
      <trkpt lat="46.35504" lon="6.01163">
        <ele>1508</ele>
        <time>2023-01-05T10:37:36Z</time>
      </trkpt>
      <trkpt lat="46.3549" lon="6.01157">
        <ele>1508</ele>
        <time>2023-01-05T10:37:48Z</time>
      </trkpt>
      <trkpt lat="46.35485" lon="6.0115">
        <ele>1508</ele>
        <time>2023-01-05T10:37:53Z</time>
      </trkpt>
      <trkpt lat="46.35474" lon="6.01143">
        <ele>1508</ele>
        <time>2023-01-05T10:38:03Z</time>
      </trkpt>
      <trkpt lat="46.35459" lon="6.01139">
        <ele>1508</ele>
        <time>2023-01-05T10:38:15Z</time>
      </trkpt>
      <trkpt lat="46.35441" lon="6.01135">
        <ele>1508</ele>
        <time>2023-01-05T10:38:30Z</time>
      </trkpt>
      <trkpt lat="46.35426" lon="6.01135">
        <ele>1507</ele>
        <time>2023-01-05T10:38:42Z</time>
      </trkpt>
      <trkpt lat="46.35416" lon="6.01133">
        <ele>1507</ele>
        <time>2023-01-05T10:38:50Z</time>
      </trkpt>
      <trkpt lat="46.35404" lon="6.0112">
        <ele>1509</ele>
        <time>2023-01-05T10:39:02Z</time>
      </trkpt>
      <trkpt lat="46.35398" lon="6.01113">
        <ele>1510</ele>
        <time>2023-01-05T10:39:08Z</time>
      </trkpt>
      <trkpt lat="46.35389" lon="6.01111">
        <ele>1510</ele>
        <time>2023-01-05T10:39:15Z</time>
      </trkpt>
      <trkpt lat="46.35379" lon="6.01103">
        <ele>1512</ele>
        <time>2023-01-05T10:39:25Z</time>
      </trkpt>
      <trkpt lat="46.35366" lon="6.01101">
        <ele>1513</ele>
        <time>2023-01-05T10:39:35Z</time>
      </trkpt>
      <trkpt lat="46.35354" lon="6.01095">
        <ele>1515</ele>
        <time>2023-01-05T10:39:45Z</time>
      </trkpt>
      <trkpt lat="46.35339" lon="6.01093">
        <ele>1516</ele>
        <time>2023-01-05T10:39:57Z</time>
      </trkpt>
      <trkpt lat="46.35327" lon="6.01094">
        <ele>1516</ele>
        <time>2023-01-05T10:40:07Z</time>
      </trkpt>
      <trkpt lat="46.35317" lon="6.01088">
        <ele>1517</ele>
        <time>2023-01-05T10:40:16Z</time>
      </trkpt>
      <trkpt lat="46.35309" lon="6.01087">
        <ele>1517</ele>
        <time>2023-01-05T10:40:22Z</time>
      </trkpt>
      <trkpt lat="46.353" lon="6.0108">
        <ele>1519</ele>
        <time>2023-01-05T10:40:30Z</time>
      </trkpt>
      <trkpt lat="46.35292" lon="6.01072">
        <ele>1520</ele>
        <time>2023-01-05T10:40:38Z</time>
      </trkpt>
      <trkpt lat="46.35272" lon="6.01067">
        <ele>1520</ele>
        <time>2023-01-05T10:40:54Z</time>
      </trkpt>
      <trkpt lat="46.35258" lon="6.01055">
        <ele>1522</ele>
        <time>2023-01-05T10:41:07Z</time>
      </trkpt>
      <trkpt lat="46.35248" lon="6.01058">
        <ele>1521</ele>
        <time>2023-01-05T10:41:15Z</time>
      </trkpt>
      <trkpt lat="46.35245" lon="6.0105">
        <ele>1522</ele>
        <time>2023-01-05T10:41:20Z</time>
      </trkpt>
      <trkpt lat="46.35249" lon="6.01038">
        <ele>1525</ele>
        <time>2023-01-05T10:41:28Z</time>
      </trkpt>
      <trkpt lat="46.35243" lon="6.01026">
        <ele>1526</ele>
        <time>2023-01-05T10:41:36Z</time>
      </trkpt>
      <trkpt lat="46.35238" lon="6.01015">
        <ele>1528</ele>
        <time>2023-01-05T10:41:43Z</time>
      </trkpt>
      <trkpt lat="46.35232" lon="6.01004">
        <ele>1529</ele>
        <time>2023-01-05T10:41:51Z</time>
      </trkpt>
      <trkpt lat="46.35226" lon="6.00992">
        <ele>1529</ele>
        <time>2023-01-05T10:41:59Z</time>
      </trkpt>
      <trkpt lat="46.35212" lon="6.00979">
        <ele>1525</ele>
        <time>2023-01-05T10:42:13Z</time>
      </trkpt>
      <trkpt lat="46.35201" lon="6.00968">
        <ele>1523</ele>
        <time>2023-01-05T10:42:23Z</time>
      </trkpt>
      <trkpt lat="46.35183" lon="6.00947">
        <ele>1518</ele>
        <time>2023-01-05T10:42:42Z</time>
      </trkpt>
      <trkpt lat="46.35164" lon="6.00928">
        <ele>1513</ele>
        <time>2023-01-05T10:43:00Z</time>
      </trkpt>
      <trkpt lat="46.35153" lon="6.00911">
        <ele>1508</ele>
        <time>2023-01-05T10:43:13Z</time>
      </trkpt>
      <trkpt lat="46.35145" lon="6.00893">
        <ele>1503</ele>
        <time>2023-01-05T10:43:25Z</time>
      </trkpt>
      <trkpt lat="46.35144" lon="6.00867">
        <ele>1498</ele>
        <time>2023-01-05T10:43:39Z</time>
      </trkpt>
      <trkpt lat="46.35142" lon="6.00839">
        <ele>1492</ele>
        <time>2023-01-05T10:43:55Z</time>
      </trkpt>
      <trkpt lat="46.35139" lon="6.00813">
        <ele>1488</ele>
        <time>2023-01-05T10:44:09Z</time>
      </trkpt>
      <trkpt lat="46.35135" lon="6.00801">
        <ele>1485</ele>
        <time>2023-01-05T10:44:17Z</time>
      </trkpt>
      <trkpt lat="46.3513" lon="6.00793">
        <ele>1483</ele>
        <time>2023-01-05T10:44:23Z</time>
      </trkpt>
      <trkpt lat="46.35123" lon="6.00794">
        <ele>1482</ele>
        <time>2023-01-05T10:44:28Z</time>
      </trkpt>
      <trkpt lat="46.35118" lon="6.00784">
        <ele>1480</ele>
        <time>2023-01-05T10:44:35Z</time>
      </trkpt>
      <trkpt lat="46.35113" lon="6.00776">
        <ele>1478</ele>
        <time>2023-01-05T10:44:41Z</time>
      </trkpt>
      <trkpt lat="46.35096" lon="6.00753">
        <ele>1473</ele>
        <time>2023-01-05T10:45:00Z</time>
      </trkpt>
      <trkpt lat="46.35087" lon="6.00747">
        <ele>1472</ele>
        <time>2023-01-05T10:45:08Z</time>
      </trkpt>
      <trkpt lat="46.3508" lon="6.00739">
        <ele>1472</ele>
        <time>2023-01-05T10:45:15Z</time>
      </trkpt>
      <trkpt lat="46.35074" lon="6.00733">
        <ele>1474</ele>
        <time>2023-01-05T10:45:21Z</time>
      </trkpt>
      <trkpt lat="46.35063" lon="6.0071">
        <ele>1478</ele>
        <time>2023-01-05T10:45:36Z</time>
      </trkpt>
      <trkpt lat="46.35053" lon="6.00692">
        <ele>1482</ele>
        <time>2023-01-05T10:45:49Z</time>
      </trkpt>
      <trkpt lat="46.35039" lon="6.00678">
        <ele>1487</ele>
        <time>2023-01-05T10:46:03Z</time>
      </trkpt>
      <trkpt lat="46.35023" lon="6.00671">
        <ele>1492</ele>
        <time>2023-01-05T10:46:16Z</time>
      </trkpt>
      <trkpt lat="46.35007" lon="6.0065">
        <ele>1500</ele>
        <time>2023-01-05T10:46:33Z</time>
      </trkpt>
      <trkpt lat="46.3499" lon="6.00642">
        <ele>1509</ele>
        <time>2023-01-05T10:46:48Z</time>
      </trkpt>
      <trkpt lat="46.34974" lon="6.00641">
        <ele>1518</ele>
        <time>2023-01-05T10:47:00Z</time>
      </trkpt>
      <trkpt lat="46.34957" lon="6.00641">
        <ele>1527</ele>
        <time>2023-01-05T10:47:14Z</time>
      </trkpt>
      <trkpt lat="46.34941" lon="6.00649">
        <ele>1535</ele>
        <time>2023-01-05T10:47:28Z</time>
      </trkpt>
      <trkpt lat="46.34923" lon="6.00656">
        <ele>1545</ele>
        <time>2023-01-05T10:47:42Z</time>
      </trkpt>
      <trkpt lat="46.34904" lon="6.00658">
        <ele>1552</ele>
        <time>2023-01-05T10:47:58Z</time>
      </trkpt>
      <trkpt lat="46.34887" lon="6.00651">
        <ele>1556</ele>
        <time>2023-01-05T10:48:12Z</time>
      </trkpt>
      <trkpt lat="46.34867" lon="6.00642">
        <ele>1561</ele>
        <time>2023-01-05T10:48:29Z</time>
      </trkpt>
      <trkpt lat="46.34859" lon="6.00632">
        <ele>1564</ele>
        <time>2023-01-05T10:48:37Z</time>
      </trkpt>
      <trkpt lat="46.34851" lon="6.00633">
        <ele>1566</ele>
        <time>2023-01-05T10:48:44Z</time>
      </trkpt>
      <trkpt lat="46.34847" lon="6.00623">
        <ele>1568</ele>
        <time>2023-01-05T10:48:50Z</time>
      </trkpt>
      <trkpt lat="46.34838" lon="6.00624">
        <ele>1570</ele>
        <time>2023-01-05T10:48:57Z</time>
      </trkpt>
      <trkpt lat="46.34833" lon="6.00617">
        <ele>1572</ele>
        <time>2023-01-05T10:49:03Z</time>
      </trkpt>
      <trkpt lat="46.34826" lon="6.0062">
        <ele>1571</ele>
        <time>2023-01-05T10:49:09Z</time>
      </trkpt>
      <trkpt lat="46.34821" lon="6.00619">
        <ele>1571</ele>
        <time>2023-01-05T10:49:13Z</time>
      </trkpt>
      <trkpt lat="46.34815" lon="6.0062">
        <ele>1571</ele>
        <time>2023-01-05T10:49:17Z</time>
      </trkpt>
      <trkpt lat="46.3481" lon="6.00624">
        <ele>1570</ele>
        <time>2023-01-05T10:49:22Z</time>
      </trkpt>
      <trkpt lat="46.34805" lon="6.00626">
        <ele>1569</ele>
        <time>2023-01-05T10:49:26Z</time>
      </trkpt>
      <trkpt lat="46.348" lon="6.00632">
        <ele>1567</ele>
        <time>2023-01-05T10:49:31Z</time>
      </trkpt>
      <trkpt lat="46.34797" lon="6.00621">
        <ele>1569</ele>
        <time>2023-01-05T10:49:38Z</time>
      </trkpt>
      <trkpt lat="46.34788" lon="6.0061">
        <ele>1571</ele>
        <time>2023-01-05T10:49:47Z</time>
      </trkpt>
      <trkpt lat="46.34774" lon="6.00596">
        <ele>1574</ele>
        <time>2023-01-05T10:50:01Z</time>
      </trkpt>
      <trkpt lat="46.34758" lon="6.00595">
        <ele>1575</ele>
        <time>2023-01-05T10:50:14Z</time>
      </trkpt>
      <trkpt lat="46.3475" lon="6.00597">
        <ele>1574</ele>
        <time>2023-01-05T10:50:20Z</time>
      </trkpt>
      <trkpt lat="46.34742" lon="6.00594">
        <ele>1574</ele>
        <time>2023-01-05T10:50:27Z</time>
      </trkpt>
      <trkpt lat="46.34734" lon="6.00587">
        <ele>1576</ele>
        <time>2023-01-05T10:50:34Z</time>
      </trkpt>
      <trkpt lat="46.34728" lon="6.00587">
        <ele>1575</ele>
        <time>2023-01-05T10:50:39Z</time>
      </trkpt>
      <trkpt lat="46.34717" lon="6.00573">
        <ele>1576</ele>
        <time>2023-01-05T10:50:51Z</time>
      </trkpt>
      <trkpt lat="46.34707" lon="6.00579">
        <ele>1575</ele>
        <time>2023-01-05T10:51:00Z</time>
      </trkpt>
      <trkpt lat="46.34697" lon="6.00575">
        <ele>1575</ele>
        <time>2023-01-05T10:51:08Z</time>
      </trkpt>
      <trkpt lat="46.34687" lon="6.00567">
        <ele>1575</ele>
        <time>2023-01-05T10:51:17Z</time>
      </trkpt>
      <trkpt lat="46.34678" lon="6.00563">
        <ele>1575</ele>
        <time>2023-01-05T10:51:25Z</time>
      </trkpt>
      <trkpt lat="46.34674" lon="6.00565">
        <ele>1574</ele>
        <time>2023-01-05T10:51:28Z</time>
      </trkpt>
      <trkpt lat="46.34667" lon="6.00561">
        <ele>1574</ele>
        <time>2023-01-05T10:51:34Z</time>
      </trkpt>
      <trkpt lat="46.34658" lon="6.0055">
        <ele>1574</ele>
        <time>2023-01-05T10:51:43Z</time>
      </trkpt>
      <trkpt lat="46.34638" lon="6.00536">
        <ele>1574</ele>
        <time>2023-01-05T10:52:01Z</time>
      </trkpt>
      <trkpt lat="46.34629" lon="6.00518">
        <ele>1578</ele>
        <time>2023-01-05T10:52:13Z</time>
      </trkpt>
      <trkpt lat="46.34614" lon="6.00505">
        <ele>1581</ele>
        <time>2023-01-05T10:52:27Z</time>
      </trkpt>
      <trkpt lat="46.34594" lon="6.00497">
        <ele>1583</ele>
        <time>2023-01-05T10:52:44Z</time>
      </trkpt>
      <trkpt lat="46.34567" lon="6.00493">
        <ele>1584</ele>
        <time>2023-01-05T10:53:06Z</time>
      </trkpt>
      <trkpt lat="46.34545" lon="6.00493">
        <ele>1587</ele>
        <time>2023-01-05T10:53:23Z</time>
      </trkpt>
      <trkpt lat="46.34535" lon="6.00487">
        <ele>1587</ele>
        <time>2023-01-05T10:53:32Z</time>
      </trkpt>
      <trkpt lat="46.34524" lon="6.00492">
        <ele>1589</ele>
        <time>2023-01-05T10:53:41Z</time>
      </trkpt>
      <trkpt lat="46.34504" lon="6.00498">
        <ele>1591</ele>
        <time>2023-01-05T10:53:58Z</time>
      </trkpt>
      <trkpt lat="46.34494" lon="6.00495">
        <ele>1592</ele>
        <time>2023-01-05T10:54:06Z</time>
      </trkpt>
      <trkpt lat="46.34473" lon="6.00488">
        <ele>1593</ele>
        <time>2023-01-05T10:54:23Z</time>
      </trkpt>
      <trkpt lat="46.34458" lon="6.00491">
        <ele>1594</ele>
        <time>2023-01-05T10:54:35Z</time>
      </trkpt>
      <trkpt lat="46.34438" lon="6.00482">
        <ele>1596</ele>
        <time>2023-01-05T10:54:52Z</time>
      </trkpt>
      <trkpt lat="46.34421" lon="6.00472">
        <ele>1597</ele>
        <time>2023-01-05T10:55:07Z</time>
      </trkpt>
      <trkpt lat="46.34404" lon="6.00461">
        <ele>1594</ele>
        <time>2023-01-05T10:55:22Z</time>
      </trkpt>
      <trkpt lat="46.34387" lon="6.0045">
        <ele>1590</ele>
        <time>2023-01-05T10:55:36Z</time>
      </trkpt>
      <trkpt lat="46.34362" lon="6.0045">
        <ele>1585</ele>
        <time>2023-01-05T10:55:57Z</time>
      </trkpt>
      <trkpt lat="46.34353" lon="6.00441">
        <ele>1584</ele>
        <time>2023-01-05T10:56:05Z</time>
      </trkpt>
      <trkpt lat="46.34339" lon="6.00441">
        <ele>1581</ele>
        <time>2023-01-05T10:56:16Z</time>
      </trkpt>
      <trkpt lat="46.34324" lon="6.00439">
        <ele>1578</ele>
        <time>2023-01-05T10:56:29Z</time>
      </trkpt>
      <trkpt lat="46.34306" lon="6.00436">
        <ele>1574</ele>
        <time>2023-01-05T10:56:43Z</time>
      </trkpt>
      <trkpt lat="46.34288" lon="6.00432">
        <ele>1570</ele>
        <time>2023-01-05T10:56:58Z</time>
      </trkpt>
      <trkpt lat="46.34269" lon="6.00426">
        <ele>1568</ele>
        <time>2023-01-05T10:57:13Z</time>
      </trkpt>
      <trkpt lat="46.34249" lon="6.00417">
        <ele>1567</ele>
        <time>2023-01-05T10:57:30Z</time>
      </trkpt>
      <trkpt lat="46.34228" lon="6.00406">
        <ele>1561</ele>
        <time>2023-01-05T10:57:48Z</time>
      </trkpt>
      <trkpt lat="46.34207" lon="6.0039">
        <ele>1557</ele>
        <time>2023-01-05T10:58:07Z</time>
      </trkpt>
      <trkpt lat="46.34184" lon="6.00373">
        <ele>1554</ele>
        <time>2023-01-05T10:58:28Z</time>
      </trkpt>
      <trkpt lat="46.34174" lon="6.00356">
        <ele>1554</ele>
        <time>2023-01-05T10:58:40Z</time>
      </trkpt>
      <trkpt lat="46.34162" lon="6.0035">
        <ele>1555</ele>
        <time>2023-01-05T10:58:50Z</time>
      </trkpt>
      <trkpt lat="46.34147" lon="6.00321">
        <ele>1558</ele>
        <time>2023-01-05T10:59:10Z</time>
      </trkpt>
      <trkpt lat="46.34132" lon="6.00294">
        <ele>1560</ele>
        <time>2023-01-05T10:59:29Z</time>
      </trkpt>
      <trkpt lat="46.34113" lon="6.00291">
        <ele>1563</ele>
        <time>2023-01-05T10:59:45Z</time>
      </trkpt>
      <trkpt lat="46.34106" lon="6.00296">
        <ele>1564</ele>
        <time>2023-01-05T10:59:51Z</time>
      </trkpt>
      <trkpt lat="46.34099" lon="6.00286">
        <ele>1566</ele>
        <time>2023-01-05T10:59:59Z</time>
      </trkpt>
      <trkpt lat="46.34092" lon="6.00286">
        <ele>1567</ele>
        <time>2023-01-05T11:00:04Z</time>
      </trkpt>
      <trkpt lat="46.34083" lon="6.00298">
        <ele>1568</ele>
        <time>2023-01-05T11:00:14Z</time>
      </trkpt>
      <trkpt lat="46.34078" lon="6.00299">
        <ele>1569</ele>
        <time>2023-01-05T11:00:18Z</time>
      </trkpt>
      <trkpt lat="46.3407" lon="6.00303">
        <ele>1569</ele>
        <time>2023-01-05T11:00:25Z</time>
      </trkpt>
      <trkpt lat="46.34045" lon="6.00298">
        <ele>1573</ele>
        <time>2023-01-05T11:00:45Z</time>
      </trkpt>
      <trkpt lat="46.34018" lon="6.00289">
        <ele>1577</ele>
        <time>2023-01-05T11:01:07Z</time>
      </trkpt>
      <trkpt lat="46.33992" lon="6.00278">
        <ele>1581</ele>
        <time>2023-01-05T11:01:29Z</time>
      </trkpt>
      <trkpt lat="46.33973" lon="6.00284">
        <ele>1581</ele>
        <time>2023-01-05T11:01:44Z</time>
      </trkpt>
      <trkpt lat="46.33967" lon="6.0028">
        <ele>1581</ele>
        <time>2023-01-05T11:01:50Z</time>
      </trkpt>
      <trkpt lat="46.3396" lon="6.00283">
        <ele>1581</ele>
        <time>2023-01-05T11:01:56Z</time>
      </trkpt>
      <trkpt lat="46.33947" lon="6.00281">
        <ele>1582</ele>
        <time>2023-01-05T11:02:06Z</time>
      </trkpt>
      <trkpt lat="46.33932" lon="6.00282">
        <ele>1582</ele>
        <time>2023-01-05T11:02:18Z</time>
      </trkpt>
      <trkpt lat="46.33906" lon="6.00277">
        <ele>1583</ele>
        <time>2023-01-05T11:02:39Z</time>
      </trkpt>
      <trkpt lat="46.33894" lon="6.00267">
        <ele>1586</ele>
        <time>2023-01-05T11:02:50Z</time>
      </trkpt>
      <trkpt lat="46.33882" lon="6.00265">
        <ele>1586</ele>
        <time>2023-01-05T11:03:00Z</time>
      </trkpt>
      <trkpt lat="46.33878" lon="6.00258">
        <ele>1589</ele>
        <time>2023-01-05T11:03:05Z</time>
      </trkpt>
      <trkpt lat="46.33851" lon="6.00244">
        <ele>1592</ele>
        <time>2023-01-05T11:03:28Z</time>
      </trkpt>
      <trkpt lat="46.33844" lon="6.00231">
        <ele>1592</ele>
        <time>2023-01-05T11:03:37Z</time>
      </trkpt>
      <trkpt lat="46.33832" lon="6.00226">
        <ele>1592</ele>
        <time>2023-01-05T11:03:47Z</time>
      </trkpt>
      <trkpt lat="46.33823" lon="6.00229">
        <ele>1591</ele>
        <time>2023-01-05T11:03:54Z</time>
      </trkpt>
      <trkpt lat="46.33803" lon="6.00225">
        <ele>1589</ele>
        <time>2023-01-05T11:04:11Z</time>
      </trkpt>
      <trkpt lat="46.33763" lon="6.00216">
        <ele>1586</ele>
        <time>2023-01-05T11:04:43Z</time>
      </trkpt>
      <trkpt lat="46.33757" lon="6.00214">
        <ele>1586</ele>
        <time>2023-01-05T11:04:48Z</time>
      </trkpt>
      <trkpt lat="46.33726" lon="6.00197">
        <ele>1585</ele>
        <time>2023-01-05T11:05:14Z</time>
      </trkpt>
      <trkpt lat="46.33714" lon="6.00192">
        <ele>1585</ele>
        <time>2023-01-05T11:05:24Z</time>
      </trkpt>
      <trkpt lat="46.3369" lon="6.00189">
        <ele>1584</ele>
        <time>2023-01-05T11:05:44Z</time>
      </trkpt>
      <trkpt lat="46.33681" lon="6.00186">
        <ele>1584</ele>
        <time>2023-01-05T11:05:51Z</time>
      </trkpt>
      <trkpt lat="46.33656" lon="6.00181">
        <ele>1584</ele>
        <time>2023-01-05T11:06:11Z</time>
      </trkpt>
      <trkpt lat="46.33642" lon="6.00178">
        <ele>1584</ele>
        <time>2023-01-05T11:06:23Z</time>
      </trkpt>
      <trkpt lat="46.33621" lon="6.00164">
        <ele>1589</ele>
        <time>2023-01-05T11:06:41Z</time>
      </trkpt>
      <trkpt lat="46.33608" lon="6.00155">
        <ele>1587</ele>
        <time>2023-01-05T11:06:53Z</time>
      </trkpt>
      <trkpt lat="46.33596" lon="6.00139">
        <ele>1588</ele>
        <time>2023-01-05T11:07:06Z</time>
      </trkpt>
      <trkpt lat="46.33579" lon="6.00127">
        <ele>1588</ele>
        <time>2023-01-05T11:07:21Z</time>
      </trkpt>
      <trkpt lat="46.33556" lon="6.00123">
        <ele>1585</ele>
        <time>2023-01-05T11:07:39Z</time>
      </trkpt>
      <trkpt lat="46.33547" lon="6.00123">
        <ele>1584</ele>
        <time>2023-01-05T11:07:47Z</time>
      </trkpt>
      <trkpt lat="46.33536" lon="6.00113">
        <ele>1586</ele>
        <time>2023-01-05T11:07:57Z</time>
      </trkpt>
      <trkpt lat="46.33507" lon="6.00102">
        <ele>1588</ele>
        <time>2023-01-05T11:08:21Z</time>
      </trkpt>
      <trkpt lat="46.33475" lon="6.00087">
        <ele>1591</ele>
        <time>2023-01-05T11:08:48Z</time>
      </trkpt>
      <trkpt lat="46.33442" lon="6.00073">
        <ele>1589</ele>
        <time>2023-01-05T11:09:15Z</time>
      </trkpt>
      <trkpt lat="46.33409" lon="6.00063">
        <ele>1584</ele>
        <time>2023-01-05T11:09:42Z</time>
      </trkpt>
      <trkpt lat="46.33401" lon="6.00058">
        <ele>1582</ele>
        <time>2023-01-05T11:09:49Z</time>
      </trkpt>
      <trkpt lat="46.33379" lon="6.00051">
        <ele>1578</ele>
        <time>2023-01-05T11:10:08Z</time>
      </trkpt>
      <trkpt lat="46.33354" lon="6.00036">
        <ele>1576</ele>
        <time>2023-01-05T11:10:29Z</time>
      </trkpt>
      <trkpt lat="46.33324" lon="6.00019">
        <ele>1577</ele>
        <time>2023-01-05T11:10:55Z</time>
      </trkpt>
      <trkpt lat="46.33293" lon="5.99999">
        <ele>1580</ele>
        <time>2023-01-05T11:11:22Z</time>
      </trkpt>
      <trkpt lat="46.33259" lon="5.99977">
        <ele>1574</ele>
        <time>2023-01-05T11:11:52Z</time>
      </trkpt>
      <trkpt lat="46.33241" lon="5.99987">
        <ele>1571</ele>
        <time>2023-01-05T11:12:07Z</time>
      </trkpt>
      <trkpt lat="46.33237" lon="5.99979">
        <ele>1570</ele>
        <time>2023-01-05T11:12:13Z</time>
      </trkpt>
      <trkpt lat="46.33206" lon="5.99984">
        <ele>1561</ele>
        <time>2023-01-05T11:12:38Z</time>
      </trkpt>
      <trkpt lat="46.33185" lon="5.99988">
        <ele>1555</ele>
        <time>2023-01-05T11:12:55Z</time>
      </trkpt>
      <trkpt lat="46.33166" lon="5.99996">
        <ele>1549</ele>
        <time>2023-01-05T11:13:11Z</time>
      </trkpt>
      <trkpt lat="46.33137" lon="5.99993">
        <ele>1548</ele>
        <time>2023-01-05T11:13:34Z</time>
      </trkpt>
      <trkpt lat="46.33125" lon="5.99993">
        <ele>1547</ele>
        <time>2023-01-05T11:13:44Z</time>
      </trkpt>
      <trkpt lat="46.33104" lon="5.99977">
        <ele>1547</ele>
        <time>2023-01-05T11:14:03Z</time>
      </trkpt>
      <trkpt lat="46.33087" lon="5.99963">
        <ele>1547</ele>
        <time>2023-01-05T11:14:18Z</time>
      </trkpt>
      <trkpt lat="46.3304" lon="5.9994">
        <ele>1550</ele>
        <time>2023-01-05T11:14:58Z</time>
      </trkpt>
      <trkpt lat="46.33023" lon="5.99941">
        <ele>1550</ele>
        <time>2023-01-05T11:15:12Z</time>
      </trkpt>
      <trkpt lat="46.32984" lon="5.99959">
        <ele>1555</ele>
        <time>2023-01-05T11:15:44Z</time>
      </trkpt>
      <trkpt lat="46.32958" lon="5.99964">
        <ele>1560</ele>
        <time>2023-01-05T11:16:05Z</time>
      </trkpt>
      <trkpt lat="46.32948" lon="5.99973">
        <ele>1562</ele>
        <time>2023-01-05T11:16:15Z</time>
      </trkpt>
      <trkpt lat="46.32944" lon="5.99993">
        <ele>1564</ele>
        <time>2023-01-05T11:16:26Z</time>
      </trkpt>
      <trkpt lat="46.32935" lon="6.00005">
        <ele>1564</ele>
        <time>2023-01-05T11:16:36Z</time>
      </trkpt>
      <trkpt lat="46.32922" lon="6.00012">
        <ele>1565</ele>
        <time>2023-01-05T11:16:47Z</time>
      </trkpt>
      <trkpt lat="46.32905" lon="6.00011">
        <ele>1569</ele>
        <time>2023-01-05T11:17:01Z</time>
      </trkpt>
      <trkpt lat="46.32893" lon="6.00015">
        <ele>1571</ele>
        <time>2023-01-05T11:17:11Z</time>
      </trkpt>
      <trkpt lat="46.3288" lon="6.00029">
        <ele>1571</ele>
        <time>2023-01-05T11:17:24Z</time>
      </trkpt>
      <trkpt lat="46.32877" lon="6.00037">
        <ele>1570</ele>
        <time>2023-01-05T11:17:29Z</time>
      </trkpt>
      <trkpt lat="46.32859" lon="6.00045">
        <ele>1573</ele>
        <time>2023-01-05T11:17:44Z</time>
      </trkpt>
      <trkpt lat="46.32857" lon="6.0005">
        <ele>1572</ele>
        <time>2023-01-05T11:17:47Z</time>
      </trkpt>
      <trkpt lat="46.32843" lon="6.00059">
        <ele>1574</ele>
        <time>2023-01-05T11:17:59Z</time>
      </trkpt>
      <trkpt lat="46.32822" lon="6.00065">
        <ele>1578</ele>
        <time>2023-01-05T11:18:16Z</time>
      </trkpt>
      <trkpt lat="46.3279" lon="6.00069">
        <ele>1584</ele>
        <time>2023-01-05T11:18:42Z</time>
      </trkpt>
      <trkpt lat="46.32752" lon="6.00092">
        <ele>1589</ele>
        <time>2023-01-05T11:19:15Z</time>
      </trkpt>
      <trkpt lat="46.32727" lon="6.00118">
        <ele>1584</ele>
        <time>2023-01-05T11:19:40Z</time>
      </trkpt>
      <trkpt lat="46.32708" lon="6.00137">
        <ele>1580</ele>
        <time>2023-01-05T11:19:58Z</time>
      </trkpt>
      <trkpt lat="46.32695" lon="6.00137">
        <ele>1581</ele>
        <time>2023-01-05T11:20:09Z</time>
      </trkpt>
      <trkpt lat="46.32687" lon="6.00133">
        <ele>1582</ele>
        <time>2023-01-05T11:20:15Z</time>
      </trkpt>
      <trkpt lat="46.32658" lon="6.00131">
        <ele>1582</ele>
        <time>2023-01-05T11:20:39Z</time>
      </trkpt>
      <trkpt lat="46.32649" lon="6.00136">
        <ele>1581</ele>
        <time>2023-01-05T11:20:46Z</time>
      </trkpt>
      <trkpt lat="46.32639" lon="6.00147">
        <ele>1577</ele>
        <time>2023-01-05T11:20:56Z</time>
      </trkpt>
      <trkpt lat="46.32629" lon="6.00152">
        <ele>1575</ele>
        <time>2023-01-05T11:21:05Z</time>
      </trkpt>
      <trkpt lat="46.32597" lon="6.00151">
        <ele>1571</ele>
        <time>2023-01-05T11:21:30Z</time>
      </trkpt>
      <trkpt lat="46.32588" lon="6.00147">
        <ele>1571</ele>
        <time>2023-01-05T11:21:38Z</time>
      </trkpt>
      <trkpt lat="46.32558" lon="6.00128">
        <ele>1576</ele>
        <time>2023-01-05T11:22:04Z</time>
      </trkpt>
      <trkpt lat="46.3253" lon="6.00122">
        <ele>1578</ele>
        <time>2023-01-05T11:22:27Z</time>
      </trkpt>
      <trkpt lat="46.32515" lon="6.0012">
        <ele>1579</ele>
        <time>2023-01-05T11:22:39Z</time>
      </trkpt>
      <trkpt lat="46.32506" lon="6.00115">
        <ele>1581</ele>
        <time>2023-01-05T11:22:47Z</time>
      </trkpt>
      <trkpt lat="46.32499" lon="6.00104">
        <ele>1587</ele>
        <time>2023-01-05T11:22:55Z</time>
      </trkpt>
      <trkpt lat="46.32475" lon="6.00083">
        <ele>1595</ele>
        <time>2023-01-05T11:23:17Z</time>
      </trkpt>
      <trkpt lat="46.3247" lon="6.00077">
        <ele>1595</ele>
        <time>2023-01-05T11:23:23Z</time>
      </trkpt>
      <trkpt lat="46.32466" lon="6.00029">
        <ele>1603</ele>
        <time>2023-01-05T11:23:49Z</time>
      </trkpt>
      <trkpt lat="46.3246" lon="5.99992">
        <ele>1608</ele>
        <time>2023-01-05T11:24:10Z</time>
      </trkpt>
      <trkpt lat="46.32452" lon="5.99959">
        <ele>1609</ele>
        <time>2023-01-05T11:24:30Z</time>
      </trkpt>
      <trkpt lat="46.32449" lon="5.99938">
        <ele>1610</ele>
        <time>2023-01-05T11:24:41Z</time>
      </trkpt>
      <trkpt lat="46.32448" lon="5.99929">
        <ele>1610</ele>
        <time>2023-01-05T11:24:47Z</time>
      </trkpt>
      <trkpt lat="46.32442" lon="5.99886">
        <ele>1611</ele>
        <time>2023-01-05T11:25:11Z</time>
      </trkpt>
      <trkpt lat="46.32434" lon="5.99831">
        <ele>1612</ele>
        <time>2023-01-05T11:25:42Z</time>
      </trkpt>
      <trkpt lat="46.32398" lon="5.99785">
        <ele>1616</ele>
        <time>2023-01-05T11:26:20Z</time>
      </trkpt>
      <trkpt lat="46.32394" lon="5.99771">
        <ele>1618</ele>
        <time>2023-01-05T11:26:29Z</time>
      </trkpt>
      <trkpt lat="46.32394" lon="5.99764">
        <ele>1618</ele>
        <time>2023-01-05T11:26:33Z</time>
      </trkpt>
      <trkpt lat="46.32393" lon="5.99759">
        <ele>1619</ele>
        <time>2023-01-05T11:26:35Z</time>
      </trkpt>
      <trkpt lat="46.32392" lon="5.99751">
        <ele>1619</ele>
        <time>2023-01-05T11:26:40Z</time>
      </trkpt>
      <trkpt lat="46.32388" lon="5.99747">
        <ele>1620</ele>
        <time>2023-01-05T11:26:44Z</time>
      </trkpt>
      <trkpt lat="46.32386" lon="5.99738">
        <ele>1621</ele>
        <time>2023-01-05T11:26:49Z</time>
      </trkpt>
      <trkpt lat="46.32381" lon="5.9973">
        <ele>1623</ele>
        <time>2023-01-05T11:26:55Z</time>
      </trkpt>
      <trkpt lat="46.32378" lon="5.99714">
        <ele>1625</ele>
        <time>2023-01-05T11:27:04Z</time>
      </trkpt>
      <trkpt lat="46.32368" lon="5.99704">
        <ele>1629</ele>
        <time>2023-01-05T11:27:14Z</time>
      </trkpt>
      <trkpt lat="46.32364" lon="5.99703">
        <ele>1630</ele>
        <time>2023-01-05T11:27:17Z</time>
      </trkpt>
      <trkpt lat="46.32361" lon="5.99701">
        <ele>1632</ele>
        <time>2023-01-05T11:27:20Z</time>
      </trkpt>
      <trkpt lat="46.32355" lon="5.99699">
        <ele>1634</ele>
        <time>2023-01-05T11:27:25Z</time>
      </trkpt>
      <trkpt lat="46.32345" lon="5.99703">
        <ele>1636</ele>
        <time>2023-01-05T11:27:33Z</time>
      </trkpt>
      <trkpt lat="46.32338" lon="5.99696">
        <ele>1640</ele>
        <time>2023-01-05T11:27:40Z</time>
      </trkpt>
      <trkpt lat="46.32329" lon="5.99679">
        <ele>1644</ele>
        <time>2023-01-05T11:27:52Z</time>
      </trkpt>
      <trkpt lat="46.32325" lon="5.99676">
        <ele>1644</ele>
        <time>2023-01-05T11:27:55Z</time>
      </trkpt>
      <trkpt lat="46.32317" lon="5.99664">
        <ele>1647</ele>
        <time>2023-01-05T11:28:05Z</time>
      </trkpt>
      <trkpt lat="46.32307" lon="5.99646">
        <ele>1651</ele>
        <time>2023-01-05T11:28:17Z</time>
      </trkpt>
      <trkpt lat="46.32287" lon="5.9961">
        <ele>1660</ele>
        <time>2023-01-05T11:28:43Z</time>
      </trkpt>
      <trkpt lat="46.32277" lon="5.99594">
        <ele>1664</ele>
        <time>2023-01-05T11:28:55Z</time>
      </trkpt>
      <trkpt lat="46.32261" lon="5.99558">
        <ele>1671</ele>
        <time>2023-01-05T11:29:18Z</time>
      </trkpt>
      <trkpt lat="46.32241" lon="5.99528">
        <ele>1675</ele>
        <time>2023-01-05T11:29:41Z</time>
      </trkpt>
      <trkpt lat="46.3223" lon="5.99533">
        <ele>1673</ele>
        <time>2023-01-05T11:29:51Z</time>
      </trkpt>
      <trkpt lat="46.32241" lon="5.99528">
        <ele>1675</ele>
        <time>2023-01-05T11:30:00Z</time>
      </trkpt>
      <trkpt lat="46.32261" lon="5.99558">
        <ele>1671</ele>
        <time>2023-01-05T11:30:23Z</time>
      </trkpt>
      <trkpt lat="46.32277" lon="5.99595">
        <ele>1664</ele>
        <time>2023-01-05T11:30:47Z</time>
      </trkpt>
      <trkpt lat="46.32287" lon="5.9961">
        <ele>1660</ele>
        <time>2023-01-05T11:30:59Z</time>
      </trkpt>
      <trkpt lat="46.32307" lon="5.99646">
        <ele>1651</ele>
        <time>2023-01-05T11:31:24Z</time>
      </trkpt>
      <trkpt lat="46.32317" lon="5.99664">
        <ele>1647</ele>
        <time>2023-01-05T11:31:37Z</time>
      </trkpt>
      <trkpt lat="46.32325" lon="5.99676">
        <ele>1644</ele>
        <time>2023-01-05T11:31:46Z</time>
      </trkpt>
      <trkpt lat="46.32329" lon="5.99679">
        <ele>1644</ele>
        <time>2023-01-05T11:31:50Z</time>
      </trkpt>
      <trkpt lat="46.32338" lon="5.99696">
        <ele>1640</ele>
        <time>2023-01-05T11:32:02Z</time>
      </trkpt>
      <trkpt lat="46.32345" lon="5.99703">
        <ele>1636</ele>
        <time>2023-01-05T11:32:08Z</time>
      </trkpt>
      <trkpt lat="46.32355" lon="5.99699">
        <ele>1634</ele>
        <time>2023-01-05T11:32:17Z</time>
      </trkpt>
      <trkpt lat="46.32361" lon="5.997">
        <ele>1632</ele>
        <time>2023-01-05T11:32:22Z</time>
      </trkpt>
      <trkpt lat="46.32364" lon="5.99703">
        <ele>1630</ele>
        <time>2023-01-05T11:32:25Z</time>
      </trkpt>
      <trkpt lat="46.32367" lon="5.99704">
        <ele>1629</ele>
        <time>2023-01-05T11:32:27Z</time>
      </trkpt>
      <trkpt lat="46.32378" lon="5.99714">
        <ele>1625</ele>
        <time>2023-01-05T11:32:37Z</time>
      </trkpt>
      <trkpt lat="46.32381" lon="5.9973">
        <ele>1623</ele>
        <time>2023-01-05T11:32:47Z</time>
      </trkpt>
      <trkpt lat="46.32386" lon="5.99738">
        <ele>1621</ele>
        <time>2023-01-05T11:32:53Z</time>
      </trkpt>
      <trkpt lat="46.32388" lon="5.99747">
        <ele>1620</ele>
        <time>2023-01-05T11:32:58Z</time>
      </trkpt>
      <trkpt lat="46.32392" lon="5.99751">
        <ele>1619</ele>
        <time>2023-01-05T11:33:02Z</time>
      </trkpt>
      <trkpt lat="46.32393" lon="5.99759">
        <ele>1619</ele>
        <time>2023-01-05T11:33:06Z</time>
      </trkpt>
      <trkpt lat="46.32393" lon="5.99764">
        <ele>1618</ele>
        <time>2023-01-05T11:33:09Z</time>
      </trkpt>
      <trkpt lat="46.32393" lon="5.99771">
        <ele>1618</ele>
        <time>2023-01-05T11:33:13Z</time>
      </trkpt>
      <trkpt lat="46.32398" lon="5.99785">
        <ele>1616</ele>
        <time>2023-01-05T11:33:22Z</time>
      </trkpt>
      <trkpt lat="46.32433" lon="5.99831">
        <ele>1612</ele>
        <time>2023-01-05T11:33:59Z</time>
      </trkpt>
      <trkpt lat="46.32466" lon="5.99819">
        <ele>1611</ele>
        <time>2023-01-05T11:34:27Z</time>
      </trkpt>
      <trkpt lat="46.3252" lon="5.99806">
        <ele>1608</ele>
        <time>2023-01-05T11:35:10Z</time>
      </trkpt>
      <trkpt lat="46.32578" lon="5.99784">
        <ele>1600</ele>
        <time>2023-01-05T11:35:58Z</time>
      </trkpt>
      <trkpt lat="46.32637" lon="5.99736">
        <ele>1589</ele>
        <time>2023-01-05T11:36:53Z</time>
      </trkpt>
      <trkpt lat="46.32699" lon="5.99704">
        <ele>1579</ele>
        <time>2023-01-05T11:37:45Z</time>
      </trkpt>
      <trkpt lat="46.32764" lon="5.99674">
        <ele>1570</ele>
        <time>2023-01-05T11:38:40Z</time>
      </trkpt>
      <trkpt lat="46.3282" lon="5.99633">
        <ele>1561</ele>
        <time>2023-01-05T11:39:30Z</time>
      </trkpt>
      <trkpt lat="46.32882" lon="5.99557">
        <ele>1549</ele>
        <time>2023-01-05T11:40:35Z</time>
      </trkpt>
      <trkpt lat="46.32918" lon="5.99473">
        <ele>1532</ele>
        <time>2023-01-05T11:41:30Z</time>
      </trkpt>
      <trkpt lat="46.32961" lon="5.99387">
        <ele>1521</ele>
        <time>2023-01-05T11:42:29Z</time>
      </trkpt>
      <trkpt lat="46.33006" lon="5.99286">
        <ele>1508</ele>
        <time>2023-01-05T11:43:35Z</time>
      </trkpt>
      <trkpt lat="46.3306" lon="5.99203">
        <ele>1498</ele>
        <time>2023-01-05T11:44:38Z</time>
      </trkpt>
      <trkpt lat="46.33142" lon="5.99165">
        <ele>1487</ele>
        <time>2023-01-05T11:45:47Z</time>
      </trkpt>
      <trkpt lat="46.33219" lon="5.99154">
        <ele>1485</ele>
        <time>2023-01-05T11:46:49Z</time>
      </trkpt>
      <trkpt lat="46.33302" lon="5.99173">
        <ele>1488</ele>
        <time>2023-01-05T11:47:56Z</time>
      </trkpt>
      <trkpt lat="46.33396" lon="5.99246">
        <ele>1487</ele>
        <time>2023-01-05T11:49:22Z</time>
      </trkpt>
      <trkpt lat="46.33468" lon="5.99306">
        <ele>1490</ele>
        <time>2023-01-05T11:50:28Z</time>
      </trkpt>
      <trkpt lat="46.33565" lon="5.99358">
        <ele>1496</ele>
        <time>2023-01-05T11:51:51Z</time>
      </trkpt>
      <trkpt lat="46.33573" lon="5.99389">
        <ele>1497</ele>
        <time>2023-01-05T11:52:09Z</time>
      </trkpt>
      <trkpt lat="46.33577" lon="5.99416">
        <ele>1498</ele>
        <time>2023-01-05T11:52:25Z</time>
      </trkpt>
      <trkpt lat="46.33589" lon="5.99455">
        <ele>1504</ele>
        <time>2023-01-05T11:52:48Z</time>
      </trkpt>
      <trkpt lat="46.33602" lon="5.99486">
        <ele>1507</ele>
        <time>2023-01-05T11:53:08Z</time>
      </trkpt>
      <trkpt lat="46.33612" lon="5.99497">
        <ele>1508</ele>
        <time>2023-01-05T11:53:18Z</time>
      </trkpt>
      <trkpt lat="46.33635" lon="5.99509">
        <ele>1507</ele>
        <time>2023-01-05T11:53:38Z</time>
      </trkpt>
      <trkpt lat="46.33659" lon="5.9953">
        <ele>1508</ele>
        <time>2023-01-05T11:54:00Z</time>
      </trkpt>
      <trkpt lat="46.33676" lon="5.99531">
        <ele>1507</ele>
        <time>2023-01-05T11:54:14Z</time>
      </trkpt>
      <trkpt lat="46.33684" lon="5.99522">
        <ele>1506</ele>
        <time>2023-01-05T11:54:22Z</time>
      </trkpt>
      <trkpt lat="46.33689" lon="5.99524">
        <ele>1506</ele>
        <time>2023-01-05T11:54:26Z</time>
      </trkpt>
      <trkpt lat="46.33704" lon="5.99519">
        <ele>1506</ele>
        <time>2023-01-05T11:54:38Z</time>
      </trkpt>
      <trkpt lat="46.33726" lon="5.99523">
        <ele>1506</ele>
        <time>2023-01-05T11:54:56Z</time>
      </trkpt>
      <trkpt lat="46.33736" lon="5.99532">
        <ele>1507</ele>
        <time>2023-01-05T11:55:06Z</time>
      </trkpt>
      <trkpt lat="46.33746" lon="5.99536">
        <ele>1508</ele>
        <time>2023-01-05T11:55:14Z</time>
      </trkpt>
      <trkpt lat="46.33757" lon="5.99537">
        <ele>1507</ele>
        <time>2023-01-05T11:55:23Z</time>
      </trkpt>
      <trkpt lat="46.33773" lon="5.99544">
        <ele>1507</ele>
        <time>2023-01-05T11:55:36Z</time>
      </trkpt>
      <trkpt lat="46.33782" lon="5.99551">
        <ele>1507</ele>
        <time>2023-01-05T11:55:44Z</time>
      </trkpt>
      <trkpt lat="46.33789" lon="5.99562">
        <ele>1507</ele>
        <time>2023-01-05T11:55:53Z</time>
      </trkpt>
      <trkpt lat="46.33794" lon="5.99571">
        <ele>1508</ele>
        <time>2023-01-05T11:55:59Z</time>
      </trkpt>
      <trkpt lat="46.33795" lon="5.99586">
        <ele>1509</ele>
        <time>2023-01-05T11:56:07Z</time>
      </trkpt>
      <trkpt lat="46.33799" lon="5.99601">
        <ele>1511</ele>
        <time>2023-01-05T11:56:16Z</time>
      </trkpt>
      <trkpt lat="46.33804" lon="5.99608">
        <ele>1511</ele>
        <time>2023-01-05T11:56:22Z</time>
      </trkpt>
      <trkpt lat="46.3381" lon="5.99619">
        <ele>1512</ele>
        <time>2023-01-05T11:56:30Z</time>
      </trkpt>
      <trkpt lat="46.33826" lon="5.99642">
        <ele>1513</ele>
        <time>2023-01-05T11:56:48Z</time>
      </trkpt>
      <trkpt lat="46.33853" lon="5.99658">
        <ele>1513</ele>
        <time>2023-01-05T11:57:11Z</time>
      </trkpt>
      <trkpt lat="46.3386" lon="5.99668">
        <ele>1514</ele>
        <time>2023-01-05T11:57:19Z</time>
      </trkpt>
      <trkpt lat="46.33868" lon="5.99689">
        <ele>1515</ele>
        <time>2023-01-05T11:57:32Z</time>
      </trkpt>
      <trkpt lat="46.33876" lon="5.99727">
        <ele>1518</ele>
        <time>2023-01-05T11:57:54Z</time>
      </trkpt>
      <trkpt lat="46.3388" lon="5.99737">
        <ele>1519</ele>
        <time>2023-01-05T11:58:00Z</time>
      </trkpt>
      <trkpt lat="46.33885" lon="5.99741">
        <ele>1518</ele>
        <time>2023-01-05T11:58:05Z</time>
      </trkpt>
      <trkpt lat="46.33894" lon="5.99743">
        <ele>1517</ele>
        <time>2023-01-05T11:58:12Z</time>
      </trkpt>
      <trkpt lat="46.33905" lon="5.99737">
        <ele>1515</ele>
        <time>2023-01-05T11:58:22Z</time>
      </trkpt>
      <trkpt lat="46.33918" lon="5.9973">
        <ele>1513</ele>
        <time>2023-01-05T11:58:33Z</time>
      </trkpt>
      <trkpt lat="46.33938" lon="5.99724">
        <ele>1513</ele>
        <time>2023-01-05T11:58:49Z</time>
      </trkpt>
      <trkpt lat="46.33945" lon="5.9972">
        <ele>1513</ele>
        <time>2023-01-05T11:58:55Z</time>
      </trkpt>
      <trkpt lat="46.33953" lon="5.99721">
        <ele>1514</ele>
        <time>2023-01-05T11:59:02Z</time>
      </trkpt>
      <trkpt lat="46.33972" lon="5.99714">
        <ele>1514</ele>
        <time>2023-01-05T11:59:17Z</time>
      </trkpt>
      <trkpt lat="46.3399" lon="5.99712">
        <ele>1515</ele>
        <time>2023-01-05T11:59:32Z</time>
      </trkpt>
      <trkpt lat="46.34002" lon="5.99703">
        <ele>1515</ele>
        <time>2023-01-05T11:59:43Z</time>
      </trkpt>
      <trkpt lat="46.34012" lon="5.99693">
        <ele>1515</ele>
        <time>2023-01-05T11:59:52Z</time>
      </trkpt>
      <trkpt lat="46.34026" lon="5.99688">
        <ele>1514</ele>
        <time>2023-01-05T12:00:04Z</time>
      </trkpt>
      <trkpt lat="46.34032" lon="5.99678">
        <ele>1514</ele>
        <time>2023-01-05T12:00:11Z</time>
      </trkpt>
      <trkpt lat="46.34039" lon="5.99673">
        <ele>1513</ele>
        <time>2023-01-05T12:00:17Z</time>
      </trkpt>
      <trkpt lat="46.34053" lon="5.99671">
        <ele>1514</ele>
        <time>2023-01-05T12:00:29Z</time>
      </trkpt>
      <trkpt lat="46.3406" lon="5.99667">
        <ele>1513</ele>
        <time>2023-01-05T12:00:35Z</time>
      </trkpt>
      <trkpt lat="46.34071" lon="5.99642">
        <ele>1512</ele>
        <time>2023-01-05T12:00:51Z</time>
      </trkpt>
      <trkpt lat="46.34083" lon="5.99633">
        <ele>1511</ele>
        <time>2023-01-05T12:01:02Z</time>
      </trkpt>
      <trkpt lat="46.34107" lon="5.99612">
        <ele>1505</ele>
        <time>2023-01-05T12:01:24Z</time>
      </trkpt>
      <trkpt lat="46.34123" lon="5.99606">
        <ele>1502</ele>
        <time>2023-01-05T12:01:38Z</time>
      </trkpt>
      <trkpt lat="46.34128" lon="5.99611">
        <ele>1501</ele>
        <time>2023-01-05T12:01:43Z</time>
      </trkpt>
      <trkpt lat="46.34146" lon="5.99617">
        <ele>1498</ele>
        <time>2023-01-05T12:01:57Z</time>
      </trkpt>
      <trkpt lat="46.3416" lon="5.99631">
        <ele>1496</ele>
        <time>2023-01-05T12:02:11Z</time>
      </trkpt>
      <trkpt lat="46.34172" lon="5.99633">
        <ele>1494</ele>
        <time>2023-01-05T12:02:21Z</time>
      </trkpt>
      <trkpt lat="46.34177" lon="5.99631">
        <ele>1494</ele>
        <time>2023-01-05T12:02:25Z</time>
      </trkpt>
      <trkpt lat="46.34181" lon="5.99626">
        <ele>1493</ele>
        <time>2023-01-05T12:02:29Z</time>
      </trkpt>
      <trkpt lat="46.34187" lon="5.99622">
        <ele>1492</ele>
        <time>2023-01-05T12:02:34Z</time>
      </trkpt>
      <trkpt lat="46.34192" lon="5.99616">
        <ele>1491</ele>
        <time>2023-01-05T12:02:39Z</time>
      </trkpt>
      <trkpt lat="46.34197" lon="5.99618">
        <ele>1490</ele>
        <time>2023-01-05T12:02:44Z</time>
      </trkpt>
      <trkpt lat="46.34205" lon="5.99627">
        <ele>1490</ele>
        <time>2023-01-05T12:02:52Z</time>
      </trkpt>
      <trkpt lat="46.34213" lon="5.99629">
        <ele>1489</ele>
        <time>2023-01-05T12:02:58Z</time>
      </trkpt>
      <trkpt lat="46.34228" lon="5.99629">
        <ele>1487</ele>
        <time>2023-01-05T12:03:10Z</time>
      </trkpt>
      <trkpt lat="46.34237" lon="5.99626">
        <ele>1486</ele>
        <time>2023-01-05T12:03:18Z</time>
      </trkpt>
      <trkpt lat="46.34242" lon="5.99617">
        <ele>1484</ele>
        <time>2023-01-05T12:03:24Z</time>
      </trkpt>
      <trkpt lat="46.34254" lon="5.99608">
        <ele>1483</ele>
        <time>2023-01-05T12:03:35Z</time>
      </trkpt>
      <trkpt lat="46.34261" lon="5.99608">
        <ele>1482</ele>
        <time>2023-01-05T12:03:40Z</time>
      </trkpt>
      <trkpt lat="46.34266" lon="5.99613">
        <ele>1483</ele>
        <time>2023-01-05T12:03:45Z</time>
      </trkpt>
      <trkpt lat="46.34277" lon="5.99619">
        <ele>1483</ele>
        <time>2023-01-05T12:03:55Z</time>
      </trkpt>
      <trkpt lat="46.34296" lon="5.99627">
        <ele>1483</ele>
        <time>2023-01-05T12:04:11Z</time>
      </trkpt>
      <trkpt lat="46.34316" lon="5.99624">
        <ele>1482</ele>
        <time>2023-01-05T12:04:27Z</time>
      </trkpt>
      <trkpt lat="46.3433" lon="5.99629">
        <ele>1482</ele>
        <time>2023-01-05T12:04:38Z</time>
      </trkpt>
      <trkpt lat="46.34346" lon="5.9963">
        <ele>1483</ele>
        <time>2023-01-05T12:04:51Z</time>
      </trkpt>
      <trkpt lat="46.34364" lon="5.9964">
        <ele>1484</ele>
        <time>2023-01-05T12:05:06Z</time>
      </trkpt>
      <trkpt lat="46.34374" lon="5.99653">
        <ele>1485</ele>
        <time>2023-01-05T12:05:17Z</time>
      </trkpt>
      <trkpt lat="46.3438" lon="5.99661">
        <ele>1486</ele>
        <time>2023-01-05T12:05:24Z</time>
      </trkpt>
      <trkpt lat="46.3438" lon="5.99672">
        <ele>1486</ele>
        <time>2023-01-05T12:05:30Z</time>
      </trkpt>
      <trkpt lat="46.34384" lon="5.99684">
        <ele>1487</ele>
        <time>2023-01-05T12:05:37Z</time>
      </trkpt>
      <trkpt lat="46.34392" lon="5.99701">
        <ele>1488</ele>
        <time>2023-01-05T12:05:49Z</time>
      </trkpt>
      <trkpt lat="46.34398" lon="5.99708">
        <ele>1489</ele>
        <time>2023-01-05T12:05:55Z</time>
      </trkpt>
      <trkpt lat="46.34419" lon="5.99752">
        <ele>1491</ele>
        <time>2023-01-05T12:06:24Z</time>
      </trkpt>
      <trkpt lat="46.34428" lon="5.99761">
        <ele>1493</ele>
        <time>2023-01-05T12:06:33Z</time>
      </trkpt>
      <trkpt lat="46.3444" lon="5.99764">
        <ele>1493</ele>
        <time>2023-01-05T12:06:43Z</time>
      </trkpt>
      <trkpt lat="46.34445" lon="5.99771">
        <ele>1494</ele>
        <time>2023-01-05T12:06:48Z</time>
      </trkpt>
      <trkpt lat="46.34452" lon="5.99792">
        <ele>1497</ele>
        <time>2023-01-05T12:07:01Z</time>
      </trkpt>
      <trkpt lat="46.34473" lon="5.99804">
        <ele>1499</ele>
        <time>2023-01-05T12:07:19Z</time>
      </trkpt>
      <trkpt lat="46.34481" lon="5.99805">
        <ele>1500</ele>
        <time>2023-01-05T12:07:26Z</time>
      </trkpt>
      <trkpt lat="46.34487" lon="5.99809">
        <ele>1501</ele>
        <time>2023-01-05T12:07:31Z</time>
      </trkpt>
      <trkpt lat="46.34491" lon="5.99817">
        <ele>1502</ele>
        <time>2023-01-05T12:07:37Z</time>
      </trkpt>
      <trkpt lat="46.34504" lon="5.99822">
        <ele>1503</ele>
        <time>2023-01-05T12:07:47Z</time>
      </trkpt>
      <trkpt lat="46.34513" lon="5.99823">
        <ele>1504</ele>
        <time>2023-01-05T12:07:55Z</time>
      </trkpt>
      <trkpt lat="46.34522" lon="5.99822">
        <ele>1504</ele>
        <time>2023-01-05T12:08:02Z</time>
      </trkpt>
      <trkpt lat="46.3454" lon="5.99815">
        <ele>1503</ele>
        <time>2023-01-05T12:08:17Z</time>
      </trkpt>
      <trkpt lat="46.34584" lon="5.9983">
        <ele>1507</ele>
        <time>2023-01-05T12:08:53Z</time>
      </trkpt>
      <trkpt lat="46.34596" lon="5.9984">
        <ele>1507</ele>
        <time>2023-01-05T12:09:04Z</time>
      </trkpt>
      <trkpt lat="46.34606" lon="5.99847">
        <ele>1507</ele>
        <time>2023-01-05T12:09:13Z</time>
      </trkpt>
      <trkpt lat="46.34619" lon="5.99862">
        <ele>1507</ele>
        <time>2023-01-05T12:09:26Z</time>
      </trkpt>
      <trkpt lat="46.34627" lon="5.9988">
        <ele>1508</ele>
        <time>2023-01-05T12:09:38Z</time>
      </trkpt>
      <trkpt lat="46.34643" lon="5.99936">
        <ele>1512</ele>
        <time>2023-01-05T12:10:11Z</time>
      </trkpt>
      <trkpt lat="46.34657" lon="5.99958">
        <ele>1513</ele>
        <time>2023-01-05T12:10:28Z</time>
      </trkpt>
      <trkpt lat="46.34668" lon="5.99981">
        <ele>1515</ele>
        <time>2023-01-05T12:10:43Z</time>
      </trkpt>
      <trkpt lat="46.34691" lon="5.99995">
        <ele>1513</ele>
        <time>2023-01-05T12:11:03Z</time>
      </trkpt>
      <trkpt lat="46.347" lon="5.99993">
        <ele>1511</ele>
        <time>2023-01-05T12:11:11Z</time>
      </trkpt>
      <trkpt lat="46.34712" lon="5.99985">
        <ele>1509</ele>
        <time>2023-01-05T12:11:21Z</time>
      </trkpt>
      <trkpt lat="46.34737" lon="5.99969">
        <ele>1504</ele>
        <time>2023-01-05T12:11:43Z</time>
      </trkpt>
      <trkpt lat="46.34771" lon="5.9996">
        <ele>1500</ele>
        <time>2023-01-05T12:12:11Z</time>
      </trkpt>
      <trkpt lat="46.34806" lon="5.99963">
        <ele>1498</ele>
        <time>2023-01-05T12:12:39Z</time>
      </trkpt>
      <trkpt lat="46.34819" lon="5.99964">
        <ele>1497</ele>
        <time>2023-01-05T12:12:49Z</time>
      </trkpt>
      <trkpt lat="46.34829" lon="5.99974">
        <ele>1496</ele>
        <time>2023-01-05T12:12:59Z</time>
      </trkpt>
      <trkpt lat="46.34837" lon="6.00002">
        <ele>1496</ele>
        <time>2023-01-05T12:13:16Z</time>
      </trkpt>
      <trkpt lat="46.34835" lon="6.00018">
        <ele>1497</ele>
        <time>2023-01-05T12:13:25Z</time>
      </trkpt>
      <trkpt lat="46.34836" lon="6.00038">
        <ele>1499</ele>
        <time>2023-01-05T12:13:36Z</time>
      </trkpt>
      <trkpt lat="46.34839" lon="6.0005">
        <ele>1500</ele>
        <time>2023-01-05T12:13:43Z</time>
      </trkpt>
      <trkpt lat="46.34845" lon="6.00054">
        <ele>1500</ele>
        <time>2023-01-05T12:13:48Z</time>
      </trkpt>
      <trkpt lat="46.34918" lon="6.00045">
        <ele>1497</ele>
        <time>2023-01-05T12:14:47Z</time>
      </trkpt>
      <trkpt lat="46.34944" lon="6.00069">
        <ele>1495</ele>
        <time>2023-01-05T12:15:12Z</time>
      </trkpt>
      <trkpt lat="46.34953" lon="6.00073">
        <ele>1495</ele>
        <time>2023-01-05T12:15:19Z</time>
      </trkpt>
      <trkpt lat="46.34969" lon="6.00073">
        <ele>1493</ele>
        <time>2023-01-05T12:15:32Z</time>
      </trkpt>
      <trkpt lat="46.34983" lon="6.00077">
        <ele>1491</ele>
        <time>2023-01-05T12:15:43Z</time>
      </trkpt>
      <trkpt lat="46.34994" lon="6.0009">
        <ele>1491</ele>
        <time>2023-01-05T12:15:55Z</time>
      </trkpt>
      <trkpt lat="46.35005" lon="6.00092">
        <ele>1489</ele>
        <time>2023-01-05T12:16:04Z</time>
      </trkpt>
      <trkpt lat="46.35015" lon="6.00098">
        <ele>1487</ele>
        <time>2023-01-05T12:16:12Z</time>
      </trkpt>
      <trkpt lat="46.35023" lon="6.0011">
        <ele>1486</ele>
        <time>2023-01-05T12:16:21Z</time>
      </trkpt>
      <trkpt lat="46.35037" lon="6.00132">
        <ele>1484</ele>
        <time>2023-01-05T12:16:38Z</time>
      </trkpt>
      <trkpt lat="46.35041" lon="6.00149">
        <ele>1485</ele>
        <time>2023-01-05T12:16:48Z</time>
      </trkpt>
      <trkpt lat="46.35042" lon="6.00193">
        <ele>1489</ele>
        <time>2023-01-05T12:17:12Z</time>
      </trkpt>
      <trkpt lat="46.35045" lon="6.00234">
        <ele>1492</ele>
        <time>2023-01-05T12:17:35Z</time>
      </trkpt>
      <trkpt lat="46.3505" lon="6.0025">
        <ele>1492</ele>
        <time>2023-01-05T12:17:45Z</time>
      </trkpt>
      <trkpt lat="46.35068" lon="6.0028">
        <ele>1489</ele>
        <time>2023-01-05T12:18:07Z</time>
      </trkpt>
      <trkpt lat="46.35091" lon="6.00301">
        <ele>1486</ele>
        <time>2023-01-05T12:18:29Z</time>
      </trkpt>
      <trkpt lat="46.35102" lon="6.00301">
        <ele>1484</ele>
        <time>2023-01-05T12:18:37Z</time>
      </trkpt>
      <trkpt lat="46.35112" lon="6.00305">
        <ele>1483</ele>
        <time>2023-01-05T12:18:46Z</time>
      </trkpt>
      <trkpt lat="46.35133" lon="6.0032">
        <ele>1482</ele>
        <time>2023-01-05T12:19:04Z</time>
      </trkpt>
      <trkpt lat="46.35148" lon="6.00337">
        <ele>1482</ele>
        <time>2023-01-05T12:19:20Z</time>
      </trkpt>
      <trkpt lat="46.35152" lon="6.00348">
        <ele>1481</ele>
        <time>2023-01-05T12:19:27Z</time>
      </trkpt>
      <trkpt lat="46.35151" lon="6.00355">
        <ele>1482</ele>
        <time>2023-01-05T12:19:30Z</time>
      </trkpt>
      <trkpt lat="46.35162" lon="6.00357">
        <ele>1480</ele>
        <time>2023-01-05T12:19:39Z</time>
      </trkpt>
      <trkpt lat="46.35172" lon="6.00355">
        <ele>1479</ele>
        <time>2023-01-05T12:19:47Z</time>
      </trkpt>
      <trkpt lat="46.3518" lon="6.00351">
        <ele>1478</ele>
        <time>2023-01-05T12:19:54Z</time>
      </trkpt>
      <trkpt lat="46.35186" lon="6.00345">
        <ele>1476</ele>
        <time>2023-01-05T12:20:00Z</time>
      </trkpt>
      <trkpt lat="46.35192" lon="6.00333">
        <ele>1475</ele>
        <time>2023-01-05T12:20:08Z</time>
      </trkpt>
      <trkpt lat="46.35194" lon="6.00322">
        <ele>1474</ele>
        <time>2023-01-05T12:20:15Z</time>
      </trkpt>
      <trkpt lat="46.35195" lon="6.00311">
        <ele>1472</ele>
        <time>2023-01-05T12:20:21Z</time>
      </trkpt>
      <trkpt lat="46.35196" lon="6.00304">
        <ele>1471</ele>
        <time>2023-01-05T12:20:25Z</time>
      </trkpt>
      <trkpt lat="46.35202" lon="6.00301">
        <ele>1470</ele>
        <time>2023-01-05T12:20:30Z</time>
      </trkpt>
      <trkpt lat="46.3521" lon="6.00305">
        <ele>1470</ele>
        <time>2023-01-05T12:20:36Z</time>
      </trkpt>
      <trkpt lat="46.35225" lon="6.00319">
        <ele>1469</ele>
        <time>2023-01-05T12:20:51Z</time>
      </trkpt>
      <trkpt lat="46.35234" lon="6.00344">
        <ele>1470</ele>
        <time>2023-01-05T12:21:06Z</time>
      </trkpt>
      <trkpt lat="46.35235" lon="6.00357">
        <ele>1470</ele>
        <time>2023-01-05T12:21:14Z</time>
      </trkpt>
      <trkpt lat="46.35235" lon="6.00366">
        <ele>1470</ele>
        <time>2023-01-05T12:21:19Z</time>
      </trkpt>
      <trkpt lat="46.35229" lon="6.0039">
        <ele>1471</ele>
        <time>2023-01-05T12:21:33Z</time>
      </trkpt>
      <trkpt lat="46.35227" lon="6.00399">
        <ele>1472</ele>
        <time>2023-01-05T12:21:38Z</time>
      </trkpt>
      <trkpt lat="46.35227" lon="6.00414">
        <ele>1472</ele>
        <time>2023-01-05T12:21:46Z</time>
      </trkpt>
      <trkpt lat="46.35228" lon="6.00424">
        <ele>1472</ele>
        <time>2023-01-05T12:21:52Z</time>
      </trkpt>
      <trkpt lat="46.35236" lon="6.00452">
        <ele>1472</ele>
        <time>2023-01-05T12:22:08Z</time>
      </trkpt>
      <trkpt lat="46.35241" lon="6.00459">
        <ele>1471</ele>
        <time>2023-01-05T12:22:14Z</time>
      </trkpt>
      <trkpt lat="46.35248" lon="6.0046">
        <ele>1470</ele>
        <time>2023-01-05T12:22:20Z</time>
      </trkpt>
      <trkpt lat="46.35274" lon="6.00461">
        <ele>1468</ele>
        <time>2023-01-05T12:22:40Z</time>
      </trkpt>
      <trkpt lat="46.35288" lon="6.00453">
        <ele>1467</ele>
        <time>2023-01-05T12:22:53Z</time>
      </trkpt>
      <trkpt lat="46.35296" lon="6.00443">
        <ele>1465</ele>
        <time>2023-01-05T12:23:01Z</time>
      </trkpt>
      <trkpt lat="46.35304" lon="6.00439">
        <ele>1464</ele>
        <time>2023-01-05T12:23:08Z</time>
      </trkpt>
      <trkpt lat="46.3531" lon="6.0044">
        <ele>1464</ele>
        <time>2023-01-05T12:23:13Z</time>
      </trkpt>
      <trkpt lat="46.35315" lon="6.00445">
        <ele>1463</ele>
        <time>2023-01-05T12:23:17Z</time>
      </trkpt>
      <trkpt lat="46.3532" lon="6.00458">
        <ele>1464</ele>
        <time>2023-01-05T12:23:26Z</time>
      </trkpt>
      <trkpt lat="46.35326" lon="6.00487">
        <ele>1466</ele>
        <time>2023-01-05T12:23:42Z</time>
      </trkpt>
      <trkpt lat="46.3533" lon="6.00497">
        <ele>1467</ele>
        <time>2023-01-05T12:23:49Z</time>
      </trkpt>
      <trkpt lat="46.35336" lon="6.00502">
        <ele>1467</ele>
        <time>2023-01-05T12:23:54Z</time>
      </trkpt>
      <trkpt lat="46.3534" lon="6.00503">
        <ele>1468</ele>
        <time>2023-01-05T12:23:58Z</time>
      </trkpt>
      <trkpt lat="46.35348" lon="6.00502">
        <ele>1467</ele>
        <time>2023-01-05T12:24:04Z</time>
      </trkpt>
      <trkpt lat="46.35362" lon="6.00497">
        <ele>1467</ele>
        <time>2023-01-05T12:24:16Z</time>
      </trkpt>
      <trkpt lat="46.35396" lon="6.00475">
        <ele>1465</ele>
        <time>2023-01-05T12:24:45Z</time>
      </trkpt>
      <trkpt lat="46.35405" lon="6.00472">
        <ele>1465</ele>
        <time>2023-01-05T12:24:53Z</time>
      </trkpt>
      <trkpt lat="46.35413" lon="6.00476">
        <ele>1465</ele>
        <time>2023-01-05T12:25:00Z</time>
      </trkpt>
      <trkpt lat="46.35422" lon="6.00491">
        <ele>1467</ele>
        <time>2023-01-05T12:25:11Z</time>
      </trkpt>
      <trkpt lat="46.35429" lon="6.00498">
        <ele>1467</ele>
        <time>2023-01-05T12:25:17Z</time>
      </trkpt>
      <trkpt lat="46.35442" lon="6.00499">
        <ele>1467</ele>
        <time>2023-01-05T12:25:28Z</time>
      </trkpt>
      <trkpt lat="46.35456" lon="6.00497">
        <ele>1466</ele>
        <time>2023-01-05T12:25:39Z</time>
      </trkpt>
      <trkpt lat="46.35468" lon="6.005">
        <ele>1466</ele>
        <time>2023-01-05T12:25:49Z</time>
      </trkpt>
      <trkpt lat="46.35484" lon="6.0051">
        <ele>1466</ele>
        <time>2023-01-05T12:26:03Z</time>
      </trkpt>
      <trkpt lat="46.35495" lon="6.00508">
        <ele>1465</ele>
        <time>2023-01-05T12:26:12Z</time>
      </trkpt>
      <trkpt lat="46.35504" lon="6.00506">
        <ele>1464</ele>
        <time>2023-01-05T12:26:19Z</time>
      </trkpt>
      <trkpt lat="46.35511" lon="6.00513">
        <ele>1464</ele>
        <time>2023-01-05T12:26:26Z</time>
      </trkpt>
      <trkpt lat="46.35513" lon="6.0052">
        <ele>1465</ele>
        <time>2023-01-05T12:26:30Z</time>
      </trkpt>
      <trkpt lat="46.35511" lon="6.00527">
        <ele>1465</ele>
        <time>2023-01-05T12:26:34Z</time>
      </trkpt>
      <trkpt lat="46.35508" lon="6.00538">
        <ele>1466</ele>
        <time>2023-01-05T12:26:41Z</time>
      </trkpt>
      <trkpt lat="46.35504" lon="6.00547">
        <ele>1467</ele>
        <time>2023-01-05T12:26:47Z</time>
      </trkpt>
      <trkpt lat="46.35504" lon="6.00558">
        <ele>1468</ele>
        <time>2023-01-05T12:26:53Z</time>
      </trkpt>
      <trkpt lat="46.3551" lon="6.00572">
        <ele>1469</ele>
        <time>2023-01-05T12:27:02Z</time>
      </trkpt>
      <trkpt lat="46.35521" lon="6.0058">
        <ele>1470</ele>
        <time>2023-01-05T12:27:12Z</time>
      </trkpt>
      <trkpt lat="46.35535" lon="6.0058">
        <ele>1470</ele>
        <time>2023-01-05T12:27:23Z</time>
      </trkpt>
      <trkpt lat="46.35547" lon="6.00576">
        <ele>1470</ele>
        <time>2023-01-05T12:27:33Z</time>
      </trkpt>
      <trkpt lat="46.35561" lon="6.00562">
        <ele>1468</ele>
        <time>2023-01-05T12:27:46Z</time>
      </trkpt>
      <trkpt lat="46.35583" lon="6.00536">
        <ele>1463</ele>
        <time>2023-01-05T12:28:09Z</time>
      </trkpt>
      <trkpt lat="46.35591" lon="6.00533">
        <ele>1462</ele>
        <time>2023-01-05T12:28:16Z</time>
      </trkpt>
      <trkpt lat="46.356" lon="6.00536">
        <ele>1461</ele>
        <time>2023-01-05T12:28:23Z</time>
      </trkpt>
      <trkpt lat="46.35616" lon="6.00543">
        <ele>1460</ele>
        <time>2023-01-05T12:28:36Z</time>
      </trkpt>
      <trkpt lat="46.35627" lon="6.00553">
        <ele>1461</ele>
        <time>2023-01-05T12:28:47Z</time>
      </trkpt>
      <trkpt lat="46.35635" lon="6.00566">
        <ele>1461</ele>
        <time>2023-01-05T12:28:56Z</time>
      </trkpt>
      <trkpt lat="46.35647" lon="6.00581">
        <ele>1462</ele>
        <time>2023-01-05T12:29:09Z</time>
      </trkpt>
      <trkpt lat="46.35654" lon="6.00587">
        <ele>1461</ele>
        <time>2023-01-05T12:29:16Z</time>
      </trkpt>
      <trkpt lat="46.35661" lon="6.00599">
        <ele>1462</ele>
        <time>2023-01-05T12:29:24Z</time>
      </trkpt>
      <trkpt lat="46.35669" lon="6.00619">
        <ele>1464</ele>
        <time>2023-01-05T12:29:37Z</time>
      </trkpt>
      <trkpt lat="46.35674" lon="6.00634">
        <ele>1464</ele>
        <time>2023-01-05T12:29:46Z</time>
      </trkpt>
      <trkpt lat="46.35678" lon="6.00657">
        <ele>1467</ele>
        <time>2023-01-05T12:29:59Z</time>
      </trkpt>
      <trkpt lat="46.35685" lon="6.00677">
        <ele>1467</ele>
        <time>2023-01-05T12:30:12Z</time>
      </trkpt>
      <trkpt lat="46.35689" lon="6.00698">
        <ele>1467</ele>
        <time>2023-01-05T12:30:24Z</time>
      </trkpt>
      <trkpt lat="46.35692" lon="6.00713">
        <ele>1467</ele>
        <time>2023-01-05T12:30:32Z</time>
      </trkpt>
      <trkpt lat="46.35698" lon="6.00726">
        <ele>1467</ele>
        <time>2023-01-05T12:30:41Z</time>
      </trkpt>
      <trkpt lat="46.35716" lon="6.00749">
        <ele>1465</ele>
        <time>2023-01-05T12:31:00Z</time>
      </trkpt>
      <trkpt lat="46.35735" lon="6.00761">
        <ele>1462</ele>
        <time>2023-01-05T12:31:17Z</time>
      </trkpt>
      <trkpt lat="46.35748" lon="6.00769">
        <ele>1460</ele>
        <time>2023-01-05T12:31:28Z</time>
      </trkpt>
      <trkpt lat="46.35756" lon="6.00781">
        <ele>1462</ele>
        <time>2023-01-05T12:31:37Z</time>
      </trkpt>
      <trkpt lat="46.35765" lon="6.00798">
        <ele>1464</ele>
        <time>2023-01-05T12:31:49Z</time>
      </trkpt>
      <trkpt lat="46.35774" lon="6.00803">
        <ele>1464</ele>
        <time>2023-01-05T12:31:57Z</time>
      </trkpt>
      <trkpt lat="46.35804" lon="6.0081">
        <ele>1463</ele>
        <time>2023-01-05T12:32:21Z</time>
      </trkpt>
      <trkpt lat="46.35813" lon="6.00784">
        <ele>1459</ele>
        <time>2023-01-05T12:32:37Z</time>
      </trkpt>
      <trkpt lat="46.35817" lon="6.00764">
        <ele>1456</ele>
        <time>2023-01-05T12:32:49Z</time>
      </trkpt>
      <trkpt lat="46.35823" lon="6.00757">
        <ele>1455</ele>
        <time>2023-01-05T12:32:55Z</time>
      </trkpt>
      <trkpt lat="46.35829" lon="6.00744">
        <ele>1453</ele>
        <time>2023-01-05T12:33:04Z</time>
      </trkpt>
      <trkpt lat="46.35838" lon="6.00721">
        <ele>1450</ele>
        <time>2023-01-05T12:33:18Z</time>
      </trkpt>
      <trkpt lat="46.35857" lon="6.0071">
        <ele>1447</ele>
        <time>2023-01-05T12:33:35Z</time>
      </trkpt>
      <trkpt lat="46.35879" lon="6.0072">
        <ele>1446</ele>
        <time>2023-01-05T12:33:53Z</time>
      </trkpt>
      <trkpt lat="46.35887" lon="6.00729">
        <ele>1446</ele>
        <time>2023-01-05T12:34:01Z</time>
      </trkpt>
      <trkpt lat="46.35906" lon="6.00735">
        <ele>1445</ele>
        <time>2023-01-05T12:34:17Z</time>
      </trkpt>
      <trkpt lat="46.35922" lon="6.00748">
        <ele>1444</ele>
        <time>2023-01-05T12:34:32Z</time>
      </trkpt>
      <trkpt lat="46.35924" lon="6.00756">
        <ele>1445</ele>
        <time>2023-01-05T12:34:36Z</time>
      </trkpt>
      <trkpt lat="46.35932" lon="6.00759">
        <ele>1444</ele>
        <time>2023-01-05T12:34:43Z</time>
      </trkpt>
      <trkpt lat="46.35946" lon="6.00747">
        <ele>1442</ele>
        <time>2023-01-05T12:34:56Z</time>
      </trkpt>
      <trkpt lat="46.35964" lon="6.00737">
        <ele>1439</ele>
        <time>2023-01-05T12:35:11Z</time>
      </trkpt>
      <trkpt lat="46.35971" lon="6.00737">
        <ele>1438</ele>
        <time>2023-01-05T12:35:17Z</time>
      </trkpt>
      <trkpt lat="46.35984" lon="6.00732">
        <ele>1436</ele>
        <time>2023-01-05T12:35:28Z</time>
      </trkpt>
      <trkpt lat="46.35987" lon="6.00734">
        <ele>1436</ele>
        <time>2023-01-05T12:35:30Z</time>
      </trkpt>
      <trkpt lat="46.35989" lon="6.0072">
        <ele>1435</ele>
        <time>2023-01-05T12:35:38Z</time>
      </trkpt>
      <trkpt lat="46.35997" lon="6.00701">
        <ele>1433</ele>
        <time>2023-01-05T12:35:51Z</time>
      </trkpt>
      <trkpt lat="46.36008" lon="6.00694">
        <ele>1431</ele>
        <time>2023-01-05T12:36:00Z</time>
      </trkpt>
      <trkpt lat="46.36025" lon="6.00679">
        <ele>1427</ele>
        <time>2023-01-05T12:36:16Z</time>
      </trkpt>
      <trkpt lat="46.36041" lon="6.00651">
        <ele>1421</ele>
        <time>2023-01-05T12:36:36Z</time>
      </trkpt>
      <trkpt lat="46.36039" lon="6.00639">
        <ele>1420</ele>
        <time>2023-01-05T12:36:43Z</time>
      </trkpt>
      <trkpt lat="46.36029" lon="6.00631">
        <ele>1421</ele>
        <time>2023-01-05T12:36:52Z</time>
      </trkpt>
      <trkpt lat="46.36027" lon="6.00609">
        <ele>1419</ele>
        <time>2023-01-05T12:37:04Z</time>
      </trkpt>
      <trkpt lat="46.36031" lon="6.0059">
        <ele>1416</ele>
        <time>2023-01-05T12:37:15Z</time>
      </trkpt>
      <trkpt lat="46.36029" lon="6.00558">
        <ele>1414</ele>
        <time>2023-01-05T12:37:33Z</time>
      </trkpt>
      <trkpt lat="46.36042" lon="6.00581">
        <ele>1413</ele>
        <time>2023-01-05T12:37:50Z</time>
      </trkpt>
      <trkpt lat="46.36065" lon="6.00588">
        <ele>1410</ele>
        <time>2023-01-05T12:38:08Z</time>
      </trkpt>
      <trkpt lat="46.36074" lon="6.00583">
        <ele>1408</ele>
        <time>2023-01-05T12:38:16Z</time>
      </trkpt>
      <trkpt lat="46.36082" lon="6.00577">
        <ele>1406</ele>
        <time>2023-01-05T12:38:23Z</time>
      </trkpt>
      <trkpt lat="46.36086" lon="6.00587">
        <ele>1406</ele>
        <time>2023-01-05T12:38:30Z</time>
      </trkpt>
      <trkpt lat="46.36086" lon="6.00596">
        <ele>1407</ele>
        <time>2023-01-05T12:38:35Z</time>
      </trkpt>
      <trkpt lat="46.36092" lon="6.00595">
        <ele>1405</ele>
        <time>2023-01-05T12:38:40Z</time>
      </trkpt>
      <trkpt lat="46.36095" lon="6.00607">
        <ele>1406</ele>
        <time>2023-01-05T12:38:47Z</time>
      </trkpt>
      <trkpt lat="46.36106" lon="6.00611">
        <ele>1404</ele>
        <time>2023-01-05T12:38:56Z</time>
      </trkpt>
      <trkpt lat="46.36114" lon="6.00607">
        <ele>1401</ele>
        <time>2023-01-05T12:39:02Z</time>
      </trkpt>
      <trkpt lat="46.36115" lon="6.00598">
        <ele>1400</ele>
        <time>2023-01-05T12:39:07Z</time>
      </trkpt>
      <trkpt lat="46.3611" lon="6.00587">
        <ele>1400</ele>
        <time>2023-01-05T12:39:15Z</time>
      </trkpt>
      <trkpt lat="46.3611" lon="6.00555">
        <ele>1396</ele>
        <time>2023-01-05T12:39:32Z</time>
      </trkpt>
      <trkpt lat="46.3614" lon="6.00543">
        <ele>1387</ele>
        <time>2023-01-05T12:39:57Z</time>
      </trkpt>
      <trkpt lat="46.36158" lon="6.00542">
        <ele>1382</ele>
        <time>2023-01-05T12:40:12Z</time>
      </trkpt>
      <trkpt lat="46.36168" lon="6.00536">
        <ele>1378</ele>
        <time>2023-01-05T12:40:20Z</time>
      </trkpt>
      <trkpt lat="46.3618" lon="6.00519">
        <ele>1373</ele>
        <time>2023-01-05T12:40:34Z</time>
      </trkpt>
      <trkpt lat="46.36204" lon="6.00498">
        <ele>1364</ele>
        <time>2023-01-05T12:40:56Z</time>
      </trkpt>
      <trkpt lat="46.36216" lon="6.00495">
        <ele>1360</ele>
        <time>2023-01-05T12:41:06Z</time>
      </trkpt>
      <trkpt lat="46.36243" lon="6.00558">
        <ele>1360</ele>
        <time>2023-01-05T12:41:47Z</time>
      </trkpt>
      <trkpt lat="46.36246" lon="6.00577">
        <ele>1361</ele>
        <time>2023-01-05T12:41:58Z</time>
      </trkpt>
      <trkpt lat="46.36242" lon="6.00587">
        <ele>1364</ele>
        <time>2023-01-05T12:42:04Z</time>
      </trkpt>
      <trkpt lat="46.36242" lon="6.00597">
        <ele>1365</ele>
        <time>2023-01-05T12:42:10Z</time>
      </trkpt>
      <trkpt lat="46.36275" lon="6.00666">
        <ele>1360</ele>
        <time>2023-01-05T12:42:56Z</time>
      </trkpt>
      <trkpt lat="46.36304" lon="6.00738">
        <ele>1359</ele>
        <time>2023-01-05T12:43:42Z</time>
      </trkpt>
      <trkpt lat="46.36312" lon="6.00742">
        <ele>1357</ele>
        <time>2023-01-05T12:43:49Z</time>
      </trkpt>
      <trkpt lat="46.36323" lon="6.00767">
        <ele>1356</ele>
        <time>2023-01-05T12:44:05Z</time>
      </trkpt>
      <trkpt lat="46.36349" lon="6.00813">
        <ele>1350</ele>
        <time>2023-01-05T12:44:38Z</time>
      </trkpt>
      <trkpt lat="46.36353" lon="6.00823">
        <ele>1350</ele>
        <time>2023-01-05T12:44:45Z</time>
      </trkpt>
      <trkpt lat="46.36358" lon="6.00826">
        <ele>1348</ele>
        <time>2023-01-05T12:44:49Z</time>
      </trkpt>
      <trkpt lat="46.36363" lon="6.00839">
        <ele>1348</ele>
        <time>2023-01-05T12:44:57Z</time>
      </trkpt>
      <trkpt lat="46.36369" lon="6.00859">
        <ele>1349</ele>
        <time>2023-01-05T12:45:09Z</time>
      </trkpt>
      <trkpt lat="46.36382" lon="6.00893">
        <ele>1349</ele>
        <time>2023-01-05T12:45:31Z</time>
      </trkpt>
      <trkpt lat="46.36396" lon="6.00925">
        <ele>1349</ele>
        <time>2023-01-05T12:45:52Z</time>
      </trkpt>
      <trkpt lat="46.36406" lon="6.00943">
        <ele>1348</ele>
        <time>2023-01-05T12:46:04Z</time>
      </trkpt>
      <trkpt lat="46.36419" lon="6.00945">
        <ele>1344</ele>
        <time>2023-01-05T12:46:15Z</time>
      </trkpt>
      <trkpt lat="46.36434" lon="6.00954">
        <ele>1343</ele>
        <time>2023-01-05T12:46:28Z</time>
      </trkpt>
      <trkpt lat="46.36445" lon="6.00968">
        <ele>1343</ele>
        <time>2023-01-05T12:46:40Z</time>
      </trkpt>
      <trkpt lat="46.36457" lon="6.00981">
        <ele>1343</ele>
        <time>2023-01-05T12:46:52Z</time>
      </trkpt>
      <trkpt lat="46.36473" lon="6.00986">
        <ele>1341</ele>
        <time>2023-01-05T12:47:05Z</time>
      </trkpt>
      <trkpt lat="46.3649" lon="6.00978">
        <ele>1337</ele>
        <time>2023-01-05T12:47:19Z</time>
      </trkpt>
      <trkpt lat="46.36499" lon="6.00967">
        <ele>1333</ele>
        <time>2023-01-05T12:47:28Z</time>
      </trkpt>
      <trkpt lat="46.36507" lon="6.00957">
        <ele>1330</ele>
        <time>2023-01-05T12:47:37Z</time>
      </trkpt>
      <trkpt lat="46.36514" lon="6.00953">
        <ele>1328</ele>
        <time>2023-01-05T12:47:43Z</time>
      </trkpt>
      <trkpt lat="46.36525" lon="6.00954">
        <ele>1326</ele>
        <time>2023-01-05T12:47:52Z</time>
      </trkpt>
      <trkpt lat="46.36537" lon="6.00967">
        <ele>1326</ele>
        <time>2023-01-05T12:48:04Z</time>
      </trkpt>
      <trkpt lat="46.36553" lon="6.00993">
        <ele>1328</ele>
        <time>2023-01-05T12:48:23Z</time>
      </trkpt>
      <trkpt lat="46.36558" lon="6.01012">
        <ele>1330</ele>
        <time>2023-01-05T12:48:34Z</time>
      </trkpt>
      <trkpt lat="46.36559" lon="6.01027">
        <ele>1332</ele>
        <time>2023-01-05T12:48:42Z</time>
      </trkpt>
      <trkpt lat="46.36562" lon="6.01043">
        <ele>1333</ele>
        <time>2023-01-05T12:48:52Z</time>
      </trkpt>
      <trkpt lat="46.3657" lon="6.01051">
        <ele>1332</ele>
        <time>2023-01-05T12:48:59Z</time>
      </trkpt>
      <trkpt lat="46.36585" lon="6.01052">
        <ele>1330</ele>
        <time>2023-01-05T12:49:11Z</time>
      </trkpt>
      <trkpt lat="46.36598" lon="6.01054">
        <ele>1327</ele>
        <time>2023-01-05T12:49:22Z</time>
      </trkpt>
      <trkpt lat="46.36614" lon="6.01066">
        <ele>1324</ele>
        <time>2023-01-05T12:49:36Z</time>
      </trkpt>
      <trkpt lat="46.36637" lon="6.01095">
        <ele>1323</ele>
        <time>2023-01-05T12:50:01Z</time>
      </trkpt>
      <trkpt lat="46.36648" lon="6.01118">
        <ele>1323</ele>
        <time>2023-01-05T12:50:16Z</time>
      </trkpt>
      <trkpt lat="46.36654" lon="6.01135">
        <ele>1325</ele>
        <time>2023-01-05T12:50:27Z</time>
      </trkpt>
      <trkpt lat="46.36656" lon="6.01153">
        <ele>1327</ele>
        <time>2023-01-05T12:50:37Z</time>
      </trkpt>
      <trkpt lat="46.36655" lon="6.01196">
        <ele>1331</ele>
        <time>2023-01-05T12:51:01Z</time>
      </trkpt>
      <trkpt lat="46.36654" lon="6.01237">
        <ele>1332</ele>
        <time>2023-01-05T12:51:23Z</time>
      </trkpt>
      <trkpt lat="46.36657" lon="6.01249">
        <ele>1333</ele>
        <time>2023-01-05T12:51:30Z</time>
      </trkpt>
      <trkpt lat="46.36665" lon="6.0126">
        <ele>1332</ele>
        <time>2023-01-05T12:51:39Z</time>
      </trkpt>
      <trkpt lat="46.36675" lon="6.0127">
        <ele>1330</ele>
        <time>2023-01-05T12:51:49Z</time>
      </trkpt>
      <trkpt lat="46.36684" lon="6.01281">
        <ele>1328</ele>
        <time>2023-01-05T12:51:58Z</time>
      </trkpt>
      <trkpt lat="46.36694" lon="6.01301">
        <ele>1326</ele>
        <time>2023-01-05T12:52:12Z</time>
      </trkpt>
      <trkpt lat="46.36697" lon="6.01312">
        <ele>1326</ele>
        <time>2023-01-05T12:52:19Z</time>
      </trkpt>
      <trkpt lat="46.36699" lon="6.01326">
        <ele>1326</ele>
        <time>2023-01-05T12:52:26Z</time>
      </trkpt>
      <trkpt lat="46.367" lon="6.01351">
        <ele>1326</ele>
        <time>2023-01-05T12:52:40Z</time>
      </trkpt>
      <trkpt lat="46.36708" lon="6.01381">
        <ele>1323</ele>
        <time>2023-01-05T12:52:58Z</time>
      </trkpt>
      <trkpt lat="46.36709" lon="6.01402">
        <ele>1322</ele>
        <time>2023-01-05T12:53:10Z</time>
      </trkpt>
      <trkpt lat="46.36707" lon="6.01418">
        <ele>1322</ele>
        <time>2023-01-05T12:53:19Z</time>
      </trkpt>
      <trkpt lat="46.36708" lon="6.01437">
        <ele>1321</ele>
        <time>2023-01-05T12:53:29Z</time>
      </trkpt>
      <trkpt lat="46.36715" lon="6.0146">
        <ele>1319</ele>
        <time>2023-01-05T12:53:43Z</time>
      </trkpt>
      <trkpt lat="46.36724" lon="6.01478">
        <ele>1318</ele>
        <time>2023-01-05T12:53:55Z</time>
      </trkpt>
      <trkpt lat="46.36733" lon="6.01498">
        <ele>1317</ele>
        <time>2023-01-05T12:54:09Z</time>
      </trkpt>
      <trkpt lat="46.3674" lon="6.01515">
        <ele>1317</ele>
        <time>2023-01-05T12:54:19Z</time>
      </trkpt>
      <trkpt lat="46.36749" lon="6.01538">
        <ele>1317</ele>
        <time>2023-01-05T12:54:34Z</time>
      </trkpt>
      <trkpt lat="46.36757" lon="6.0155">
        <ele>1316</ele>
        <time>2023-01-05T12:54:43Z</time>
      </trkpt>
      <trkpt lat="46.36744" lon="6.01586">
        <ele>1319</ele>
        <time>2023-01-05T12:55:06Z</time>
      </trkpt>
      <trkpt lat="46.36733" lon="6.01619">
        <ele>1322</ele>
        <time>2023-01-05T12:55:26Z</time>
      </trkpt>
      <trkpt lat="46.36724" lon="6.0165">
        <ele>1325</ele>
        <time>2023-01-05T12:55:45Z</time>
      </trkpt>
      <trkpt lat="46.36722" lon="6.01666">
        <ele>1326</ele>
        <time>2023-01-05T12:55:54Z</time>
      </trkpt>
      <trkpt lat="46.36722" lon="6.01684">
        <ele>1327</ele>
        <time>2023-01-05T12:56:03Z</time>
      </trkpt>
      <trkpt lat="46.3672" lon="6.01698">
        <ele>1327</ele>
        <time>2023-01-05T12:56:11Z</time>
      </trkpt>
    </trkseg>
  </trk>
</gpx>